Time,TemperatureF,DewpointF,PressureIn,WindDirection,WindDirectionDegrees,WindSpeedMPH,WindSpeedGustMPH,Humidity,HourlyPrecipIn,Conditions,Clouds,dailyrainin,SolarRadiationWatts/m^2,SoftwareType,DateUTC
2013-04-17 00:03:00,33.5,23.4,30.48,WNW,299,0.0,0.0,66,0.00,,,0.00,0,Wunderground v.1.15,2013-04-17 05:03:00,
2013-04-17 00:04:00,33.4,23.3,30.48,WNW,299,0.0,0.0,66,0.00,,,0.00,0,Wunderground v.1.15,2013-04-17 05:04:00,
2013-04-17 00:06:00,33.3,23.2,30.48,WNW,299,0.0,0.0,66,0.00,,,0.00,0,Wunderground v.1.15,2013-04-17 05:06:00,
2013-04-17 00:08:00,33.4,23.3,30.48,WNW,299,0.0,0.0,66,0.00,,,0.00,0,Wunderground v.1.15,2013-04-17 05:08:00,
2013-04-17 00:10:00,33.2,23.1,30.48,WNW,299,0.0,0.0,66,0.00,,,0.00,0,Wunderground v.1.15,2013-04-17 05:10:00,
2013-04-17 00:11:00,33.1,23.0,30.48,WNW,299,0.0,0.0,66,0.00,,,0.00,0,Wunderground v.1.15,2013-04-17 05:11:00,
2013-04-17 00:12:00,33.0,22.9,30.48,WNW,299,0.0,0.0,66,0.00,,,0.00,0,Wunderground v.1.15,2013-04-17 05:12:00,
2013-04-17 00:14:00,32.9,22.8,30.48,WNW,299,0.0,0.0,66,0.00,,,0.00,0,Wunderground v.1.15,2013-04-17 05:14:00,
2013-04-17 00:17:00,32.7,22.6,30.48,WNW,299,0.0,0.0,66,0.00,,,0.00,0,Wunderground v.1.15,2013-04-17 05:17:00,
2013-04-17 00:19:00,32.6,22.8,30.49,WNW,299,0.0,0.0,67,0.00,,,0.00,0,Wunderground v.1.15,2013-04-17 05:19:00,
2013-04-17 00:20:00,32.6,22.8,30.48,WNW,299,0.0,0.0,67,0.00,,,0.00,0,Wunderground v.1.15,2013-04-17 05:20:00,
2013-04-17 00:25:00,32.5,22.8,30.49,WNW,299,0.0,0.0,67,0.00,,,0.00,0,Wunderground v.1.15,2013-04-17 05:25:00,
2013-04-17 00:31:00,32.4,22.7,30.48,WNW,299,0.0,0.0,67,0.00,,,0.00,0,Wunderground v.1.15,2013-04-17 05:31:00,
2013-04-17 00:32:00,32.3,22.9,30.48,WNW,299,0.0,0.0,68,0.00,,,0.00,0,Wunderground v.1.15,2013-04-17 05:32:00,
2013-04-17 00:35:00,32.3,22.9,30.48,WNW,299,0.0,0.0,68,0.00,,,0.00,0,Wunderground v.1.15,2013-04-17 05:35:00,
2013-04-17 00:37:00,32.2,22.8,30.48,WNW,299,0.0,0.0,68,0.00,,,0.00,0,Wunderground v.1.15,2013-04-17 05:37:00,
2013-04-17 00:38:00,32.2,22.8,30.48,WNW,299,0.0,0.0,68,0.00,,,0.00,0,Wunderground v.1.15,2013-04-17 05:38:00,
2013-04-17 00:40:00,32.2,22.8,30.48,WNW,299,0.0,0.0,68,0.00,,,0.00,0,Wunderground v.1.15,2013-04-17 05:40:00,
2013-04-17 00:41:00,32.1,22.7,30.48,WNW,299,0.0,0.0,68,0.00,,,0.00,0,Wunderground v.1.15,2013-04-17 05:41:00,
2013-04-17 00:43:00,32.1,23.1,30.49,WNW,299,0.0,0.0,69,0.00,,,0.00,0,Wunderground v.1.15,2013-04-17 05:43:00,
2013-04-17 00:46:00,32.1,23.1,30.49,WNW,299,0.0,0.0,69,0.00,,,0.00,0,Wunderground v.1.15,2013-04-17 05:46:00,
2013-04-17 00:47:00,32.1,23.1,30.49,WNW,299,0.0,0.0,69,0.00,,,0.00,0,Wunderground v.1.15,2013-04-17 05:47:00,
2013-04-17 00:48:00,32.1,23.1,30.49,WNW,299,0.0,0.0,69,0.00,,,0.00,0,Wunderground v.1.15,2013-04-17 05:48:00,
2013-04-17 00:49:00,32.1,23.1,30.49,WNW,299,0.0,0.0,69,0.00,,,0.00,0,Wunderground v.1.15,2013-04-17 05:49:00,
2013-04-17 00:50:00,32.1,23.1,30.49,WNW,299,0.0,0.0,69,0.00,,,0.00,0,Wunderground v.1.15,2013-04-17 05:50:00,
2013-04-17 00:53:00,32.2,23.2,30.49,WNW,299,0.0,0.0,69,0.00,,,0.00,0,Wunderground v.1.15,2013-04-17 05:53:00,
2013-04-17 00:54:00,32.2,23.2,30.49,WNW,299,0.0,0.0,69,0.00,,,0.00,0,Wunderground v.1.15,2013-04-17 05:54:00,
2013-04-17 00:55:00,32.2,23.2,30.49,WNW,299,0.0,0.0,69,0.00,,,0.00,0,Wunderground v.1.15,2013-04-17 05:55:00,
2013-04-17 00:59:00,32.2,23.2,30.49,WNW,299,0.0,0.0,69,0.00,,,0.00,0,Wunderground v.1.15,2013-04-17 05:59:00,
2013-04-17 01:01:00,32.2,23.2,30.49,WNW,299,0.0,0.0,69,0.00,,,0.00,0,Wunderground v.1.15,2013-04-17 06:01:00,
2013-04-17 01:04:00,32.1,23.4,30.49,WNW,299,0.0,0.0,70,0.00,,,0.00,0,Wunderground v.1.15,2013-04-17 06:04:00,
2013-04-17 01:07:00,32.1,23.1,30.49,WNW,299,0.0,0.0,69,0.00,,,0.00,0,Wunderground v.1.15,2013-04-17 06:07:00,
2013-04-17 01:08:00,32.0,23.0,30.49,WNW,299,0.0,0.0,69,0.00,,,0.00,0,Wunderground v.1.15,2013-04-17 06:08:00,
2013-04-17 01:13:00,31.8,23.1,30.49,WNW,299,0.0,0.0,70,0.00,,,0.00,0,Wunderground v.1.15,2013-04-17 06:13:00,
2013-04-17 01:14:00,31.7,23.0,30.49,WNW,299,0.0,0.0,70,0.00,,,0.00,0,Wunderground v.1.15,2013-04-17 06:14:00,
2013-04-17 01:15:00,31.7,23.0,30.49,WNW,299,0.0,0.0,70,0.00,,,0.00,0,Wunderground v.1.15,2013-04-17 06:15:00,
2013-04-17 01:16:00,31.7,23.0,30.49,WNW,299,0.0,0.0,70,0.00,,,0.00,0,Wunderground v.1.15,2013-04-17 06:16:00,
2013-04-17 01:18:00,31.6,22.9,30.49,WNW,299,0.0,0.0,70,0.00,,,0.00,0,Wunderground v.1.15,2013-04-17 06:18:00,
2013-04-17 01:19:00,31.6,22.9,30.50,WNW,299,0.0,0.0,70,0.00,,,0.00,0,Wunderground v.1.15,2013-04-17 06:19:00,
2013-04-17 01:21:00,31.6,22.9,30.49,WNW,299,0.0,0.0,70,0.00,,,0.00,0,Wunderground v.1.15,2013-04-17 06:21:00,
2013-04-17 01:23:00,31.6,22.9,30.49,WNW,299,0.0,0.0,70,0.00,,,0.00,0,Wunderground v.1.15,2013-04-17 06:23:00,
2013-04-17 01:24:00,31.6,22.9,30.49,WNW,299,0.0,0.0,70,0.00,,,0.00,0,Wunderground v.1.15,2013-04-17 06:24:00,
2013-04-17 01:25:00,31.6,22.9,30.49,WNW,299,0.0,0.0,70,0.00,,,0.00,0,Wunderground v.1.15,2013-04-17 06:25:00,
2013-04-17 01:28:00,31.6,22.9,30.49,WNW,299,0.0,0.0,70,0.00,,,0.00,0,Wunderground v.1.15,2013-04-17 06:28:00,
2013-04-17 01:29:00,31.6,22.9,30.49,WNW,299,0.0,0.0,70,0.00,,,0.00,0,Wunderground v.1.15,2013-04-17 06:29:00,
2013-04-17 01:30:00,31.6,22.9,30.48,WNW,299,0.0,0.0,70,0.00,,,0.00,0,Wunderground v.1.15,2013-04-17 06:30:00,
2013-04-17 01:31:00,31.6,22.9,30.49,WNW,299,0.0,0.0,70,0.00,,,0.00,0,Wunderground v.1.15,2013-04-17 06:31:00,
2013-04-17 01:33:00,31.6,22.9,30.48,WNW,299,0.0,0.0,70,0.00,,,0.00,0,Wunderground v.1.15,2013-04-17 06:33:00,
2013-04-17 01:34:00,31.6,22.9,30.48,WNW,299,0.0,0.0,70,0.00,,,0.00,0,Wunderground v.1.15,2013-04-17 06:34:00,
2013-04-17 01:35:00,31.6,23.3,30.48,WNW,299,0.0,0.0,71,0.00,,,0.00,0,Wunderground v.1.15,2013-04-17 06:35:00,
2013-04-17 01:37:00,31.6,23.3,30.48,WNW,299,0.0,0.0,71,0.00,,,0.00,0,Wunderground v.1.15,2013-04-17 06:37:00,
2013-04-17 01:39:00,31.6,23.3,30.48,WNW,299,0.0,0.0,71,0.00,,,0.00,0,Wunderground v.1.15,2013-04-17 06:39:00,
2013-04-17 01:40:00,31.7,23.4,30.48,WNW,299,0.0,0.0,71,0.00,,,0.00,0,Wunderground v.1.15,2013-04-17 06:40:00,
2013-04-17 01:42:00,31.8,23.5,30.48,WNW,299,0.0,0.0,71,0.00,,,0.00,0,Wunderground v.1.15,2013-04-17 06:42:00,
2013-04-17 01:43:00,31.9,23.6,30.48,WNW,299,0.0,0.0,71,0.00,,,0.00,0,Wunderground v.1.15,2013-04-17 06:43:00,
2013-04-17 01:46:00,32.1,23.8,30.48,WNW,299,0.0,0.0,71,0.00,,,0.00,0,Wunderground v.1.15,2013-04-17 06:46:00,
2013-04-17 01:47:00,32.1,23.8,30.48,WNW,299,0.0,0.0,71,0.00,,,0.00,0,Wunderground v.1.15,2013-04-17 06:47:00,
2013-04-17 01:48:00,32.1,23.8,30.48,WNW,299,0.0,0.0,71,0.00,,,0.00,0,Wunderground v.1.15,2013-04-17 06:48:00,
2013-04-17 01:49:00,32.1,23.8,30.48,WNW,299,0.0,0.0,71,0.00,,,0.00,0,Wunderground v.1.15,2013-04-17 06:49:00,
2013-04-17 01:50:00,32.1,23.8,30.49,WNW,299,0.0,0.0,71,0.00,,,0.00,0,Wunderground v.1.15,2013-04-17 06:50:00,
2013-04-17 01:53:00,32.1,23.4,30.48,WNW,299,0.0,0.0,70,0.00,,,0.00,0,Wunderground v.1.15,2013-04-17 06:53:00,
2013-04-17 01:55:00,32.1,23.8,30.48,WNW,299,0.0,0.0,71,0.00,,,0.00,0,Wunderground v.1.15,2013-04-17 06:55:00,
2013-04-17 01:57:00,32.1,23.8,30.48,WNW,299,0.0,0.0,71,0.00,,,0.00,0,Wunderground v.1.15,2013-04-17 06:57:00,
2013-04-17 01:58:00,32.0,23.7,30.49,WNW,299,0.0,0.0,71,0.00,,,0.00,0,Wunderground v.1.15,2013-04-17 06:58:00,
2013-04-17 02:00:00,32.0,23.7,30.48,WNW,299,0.0,0.0,71,0.00,,,0.00,0,Wunderground v.1.15,2013-04-17 07:00:00,
2013-04-17 02:01:00,32.0,23.7,30.48,WNW,299,0.0,0.0,71,0.00,,,0.00,0,Wunderground v.1.15,2013-04-17 07:01:00,
2013-04-17 02:02:00,31.9,23.2,30.48,WNW,299,0.0,0.0,70,0.00,,,0.00,0,Wunderground v.1.15,2013-04-17 07:02:00,
2013-04-17 02:03:00,31.8,23.5,30.48,WNW,299,0.0,0.0,71,0.00,,,0.00,0,Wunderground v.1.15,2013-04-17 07:03:00,
2013-04-17 02:06:00,31.7,23.4,30.48,WNW,299,0.0,0.0,71,0.00,,,0.00,0,Wunderground v.1.15,2013-04-17 07:06:00,
2013-04-17 02:07:00,31.6,23.3,30.48,WNW,299,0.0,0.0,71,0.00,,,0.00,0,Wunderground v.1.15,2013-04-17 07:07:00,
2013-04-17 02:08:00,31.6,23.3,30.48,WNW,299,0.0,0.0,71,0.00,,,0.00,0,Wunderground v.1.15,2013-04-17 07:08:00,
2013-04-17 02:09:00,31.6,23.3,30.48,WNW,299,0.0,0.0,71,0.00,,,0.00,0,Wunderground v.1.15,2013-04-17 07:09:00,
2013-04-17 02:11:00,31.5,23.2,30.48,WNW,299,0.0,0.0,71,0.00,,,0.00,0,Wunderground v.1.15,2013-04-17 07:11:00,
2013-04-17 02:12:00,31.3,23.0,30.48,WNW,299,0.0,0.0,71,0.00,,,0.00,0,Wunderground v.1.15,2013-04-17 07:12:00,
2013-04-17 02:13:00,31.3,23.0,30.48,WNW,299,0.0,0.0,71,0.00,,,0.00,0,Wunderground v.1.15,2013-04-17 07:13:00,
2013-04-17 02:14:00,31.2,22.9,30.48,WNW,299,0.0,0.0,71,0.00,,,0.00,0,Wunderground v.1.15,2013-04-17 07:14:00,
2013-04-17 02:17:00,31.1,22.8,30.48,WNW,299,0.0,0.0,71,0.00,,,0.00,0,Wunderground v.1.15,2013-04-17 07:17:00,
2013-04-17 02:18:00,31.1,22.8,30.48,WNW,299,0.0,0.0,71,0.00,,,0.00,0,Wunderground v.1.15,2013-04-17 07:18:00,
2013-04-17 02:20:00,31.0,23.0,30.48,WNW,299,0.0,0.0,72,0.00,,,0.00,0,Wunderground v.1.15,2013-04-17 07:20:00,
2013-04-17 02:22:00,30.9,22.6,30.48,WNW,299,0.0,0.0,71,0.00,,,0.00,0,Wunderground v.1.15,2013-04-17 07:22:00,
2013-04-17 02:23:00,30.9,22.9,30.48,WNW,299,0.0,0.0,72,0.00,,,0.00,0,Wunderground v.1.15,2013-04-17 07:23:00,
2013-04-17 02:24:00,30.9,22.9,30.48,WNW,299,0.0,0.0,72,0.00,,,0.00,0,Wunderground v.1.15,2013-04-17 07:24:00,
2013-04-17 02:25:00,30.8,22.8,30.48,WNW,299,0.0,0.0,72,0.00,,,0.00,0,Wunderground v.1.15,2013-04-17 07:25:00,
2013-04-17 02:27:00,30.8,22.8,30.48,WNW,299,0.0,0.0,72,0.00,,,0.00,0,Wunderground v.1.15,2013-04-17 07:27:00,
2013-04-17 02:28:00,30.8,22.8,30.48,WNW,299,0.0,0.0,72,0.00,,,0.00,0,Wunderground v.1.15,2013-04-17 07:28:00,
2013-04-17 02:30:00,30.8,22.8,30.48,WNW,299,0.0,0.0,72,0.00,,,0.00,0,Wunderground v.1.15,2013-04-17 07:30:00,
2013-04-17 02:31:00,30.8,23.2,30.48,WNW,299,0.0,0.0,73,0.00,,,0.00,0,Wunderground v.1.15,2013-04-17 07:31:00,
2013-04-17 02:32:00,30.9,22.9,30.48,WNW,299,0.0,0.0,72,0.00,,,0.00,0,Wunderground v.1.15,2013-04-17 07:32:00,
2013-04-17 02:33:00,30.9,23.3,30.48,WNW,299,0.0,0.0,73,0.00,,,0.00,0,Wunderground v.1.15,2013-04-17 07:33:00,
2013-04-17 02:35:00,30.9,23.3,30.48,WNW,299,0.0,0.0,73,0.00,,,0.00,0,Wunderground v.1.15,2013-04-17 07:35:00,
2013-04-17 02:36:00,31.0,23.4,30.48,WNW,299,0.0,0.0,73,0.00,,,0.00,0,Wunderground v.1.15,2013-04-17 07:36:00,
2013-04-17 02:37:00,31.0,23.4,30.48,WNW,299,0.0,0.0,73,0.00,,,0.00,0,Wunderground v.1.15,2013-04-17 07:37:00,
2013-04-17 02:38:00,31.0,23.4,30.48,WNW,299,0.0,0.0,73,0.00,,,0.00,0,Wunderground v.1.15,2013-04-17 07:38:00,
2013-04-17 02:40:00,31.1,23.5,30.48,WNW,299,0.0,0.0,73,0.00,,,0.00,0,Wunderground v.1.15,2013-04-17 07:40:00,
2013-04-17 02:41:00,31.2,23.5,30.48,WNW,299,0.0,0.0,73,0.00,,,0.00,0,Wunderground v.1.15,2013-04-17 07:41:00,
2013-04-17 02:42:00,31.2,23.5,30.48,WNW,299,0.0,0.0,73,0.00,,,0.00,0,Wunderground v.1.15,2013-04-17 07:42:00,
2013-04-17 02:43:00,31.2,23.5,30.48,WNW,299,0.0,0.0,73,0.00,,,0.00,0,Wunderground v.1.15,2013-04-17 07:43:00,
2013-04-17 02:45:00,31.2,23.5,30.48,WNW,299,0.0,0.0,73,0.00,,,0.00,0,Wunderground v.1.15,2013-04-17 07:45:00,
2013-04-17 02:46:00,31.2,23.5,30.48,WNW,299,0.0,0.0,73,0.00,,,0.00,0,Wunderground v.1.15,2013-04-17 07:46:00,
2013-04-17 02:47:00,31.3,23.6,30.48,WNW,299,0.0,0.0,73,0.00,,,0.00,0,Wunderground v.1.15,2013-04-17 07:47:00,
2013-04-17 02:48:00,31.2,23.5,30.48,WNW,299,0.0,0.0,73,0.00,,,0.00,0,Wunderground v.1.15,2013-04-17 07:48:00,
2013-04-17 02:50:00,31.2,23.5,30.48,WNW,299,0.0,0.0,73,0.00,,,0.00,0,Wunderground v.1.15,2013-04-17 07:50:00,
2013-04-17 02:51:00,31.1,23.1,30.48,WNW,299,0.0,0.0,72,0.00,,,0.00,0,Wunderground v.1.15,2013-04-17 07:51:00,
2013-04-17 02:52:00,31.1,23.5,30.48,WNW,299,0.0,0.0,73,0.00,,,0.00,0,Wunderground v.1.15,2013-04-17 07:52:00,
2013-04-17 02:53:00,31.1,23.5,30.48,WNW,299,0.0,0.0,73,0.00,,,0.00,0,Wunderground v.1.15,2013-04-17 07:53:00,
2013-04-17 02:56:00,31.0,23.4,30.48,WNW,299,0.0,0.0,73,0.00,,,0.00,0,Wunderground v.1.15,2013-04-17 07:56:00,
2013-04-17 02:57:00,31.0,23.4,30.48,WNW,299,0.0,0.0,73,0.00,,,0.00,0,Wunderground v.1.15,2013-04-17 07:57:00,
2013-04-17 02:58:00,31.0,23.4,30.48,WNW,299,0.0,0.0,73,0.00,,,0.00,0,Wunderground v.1.15,2013-04-17 07:58:00,
2013-04-17 02:59:00,30.9,23.3,30.48,WNW,299,0.0,0.0,73,0.00,,,0.00,0,Wunderground v.1.15,2013-04-17 07:59:00,
2013-04-17 03:02:00,30.9,23.3,30.48,WNW,299,0.0,0.0,73,0.00,,,0.00,0,Wunderground v.1.15,2013-04-17 08:02:00,
2013-04-17 03:03:00,30.9,23.3,30.48,WNW,299,0.0,0.0,73,0.00,,,0.00,0,Wunderground v.1.15,2013-04-17 08:03:00,
2013-04-17 03:04:00,30.9,23.3,30.48,WNW,299,0.0,0.0,73,0.00,,,0.00,0,Wunderground v.1.15,2013-04-17 08:04:00,
2013-04-17 03:07:00,30.9,23.3,30.48,WNW,299,0.0,0.0,73,0.00,,,0.00,0,Wunderground v.1.15,2013-04-17 08:07:00,
2013-04-17 03:08:00,30.9,23.3,30.49,WNW,299,0.0,0.0,73,0.00,,,0.00,0,Wunderground v.1.15,2013-04-17 08:08:00,
2013-04-17 03:09:00,30.9,23.3,30.48,WNW,299,0.0,0.0,73,0.00,,,0.00,0,Wunderground v.1.15,2013-04-17 08:09:00,
2013-04-17 03:12:00,30.9,23.3,30.48,WNW,299,0.0,0.0,73,0.00,,,0.00,0,Wunderground v.1.15,2013-04-17 08:12:00,
2013-04-17 03:13:00,30.9,23.3,30.49,WNW,299,0.0,0.0,73,0.00,,,0.00,0,Wunderground v.1.15,2013-04-17 08:13:00,
2013-04-17 03:14:00,30.9,23.3,30.48,WNW,299,0.0,0.0,73,0.00,,,0.00,0,Wunderground v.1.15,2013-04-17 08:14:00,
2013-04-17 03:15:00,30.9,23.3,30.48,WNW,299,0.0,0.0,73,0.00,,,0.00,0,Wunderground v.1.15,2013-04-17 08:15:00,
2013-04-17 03:17:00,30.8,23.2,30.48,WNW,299,0.0,0.0,73,0.00,,,0.00,0,Wunderground v.1.15,2013-04-17 08:17:00,
2013-04-17 03:18:00,30.8,23.2,30.48,WNW,299,0.0,0.0,73,0.00,,,0.00,0,Wunderground v.1.15,2013-04-17 08:18:00,
2013-04-17 03:20:00,30.8,23.2,30.48,WNW,299,0.0,0.0,73,0.00,,,0.00,0,Wunderground v.1.15,2013-04-17 08:20:00,
2013-04-17 03:22:00,30.7,23.1,30.49,WNW,299,0.0,0.0,73,0.00,,,0.00,0,Wunderground v.1.15,2013-04-17 08:22:00,
2013-04-17 03:24:00,30.7,23.4,30.48,WNW,299,0.0,0.0,74,0.00,,,0.00,0,Wunderground v.1.15,2013-04-17 08:24:00,
2013-04-17 03:25:00,30.7,23.1,30.48,WNW,299,0.0,0.0,73,0.00,,,0.00,0,Wunderground v.1.15,2013-04-17 08:25:00,
2013-04-17 03:28:00,30.6,23.3,30.48,WNW,299,0.0,0.0,74,0.00,,,0.00,0,Wunderground v.1.15,2013-04-17 08:28:00,
2013-04-17 03:29:00,30.6,23.0,30.49,WNW,299,0.0,0.0,73,0.00,,,0.00,0,Wunderground v.1.15,2013-04-17 08:29:00,
2013-04-17 03:30:00,30.6,23.0,30.49,WNW,299,0.0,0.0,73,0.00,,,0.00,0,Wunderground v.1.15,2013-04-17 08:30:00,
2013-04-17 03:33:00,30.5,23.2,30.49,WNW,299,0.0,0.0,74,0.00,,,0.00,0,Wunderground v.1.15,2013-04-17 08:33:00,
2013-04-17 03:34:00,30.5,23.2,30.48,WNW,299,0.0,0.0,74,0.00,,,0.00,0,Wunderground v.1.15,2013-04-17 08:34:00,
2013-04-17 03:35:00,30.5,23.2,30.49,WNW,299,0.0,0.0,74,0.00,,,0.00,0,Wunderground v.1.15,2013-04-17 08:35:00,
2013-04-17 03:37:00,30.4,23.1,30.48,WNW,299,0.0,0.0,74,0.00,,,0.00,0,Wunderground v.1.15,2013-04-17 08:37:00,
2013-04-17 03:38:00,30.4,23.1,30.48,WNW,299,0.0,0.0,74,0.00,,,0.00,0,Wunderground v.1.15,2013-04-17 08:38:00,
2013-04-17 03:39:00,30.4,23.1,30.49,WNW,299,0.0,0.0,74,0.00,,,0.00,0,Wunderground v.1.15,2013-04-17 08:39:00,
2013-04-17 03:40:00,30.4,23.1,30.48,WNW,299,0.0,0.0,74,0.00,,,0.00,0,Wunderground v.1.15,2013-04-17 08:40:00,
2013-04-17 03:42:00,30.4,23.4,30.48,WNW,299,0.0,0.0,75,0.00,,,0.00,0,Wunderground v.1.15,2013-04-17 08:42:00,
2013-04-17 03:43:00,30.4,23.1,30.47,WNW,299,0.0,0.0,74,0.00,,,0.00,0,Wunderground v.1.15,2013-04-17 08:43:00,
2013-04-17 03:44:00,30.4,23.4,30.48,WNW,299,0.0,0.0,75,0.00,,,0.00,0,Wunderground v.1.15,2013-04-17 08:44:00,
2013-04-17 03:45:00,30.4,23.4,30.47,WNW,299,0.0,0.0,75,0.00,,,0.00,0,Wunderground v.1.15,2013-04-17 08:45:00,
2013-04-17 03:46:00,30.3,23.3,30.47,WNW,299,0.0,0.0,75,0.00,,,0.00,0,Wunderground v.1.15,2013-04-17 08:46:00,
2013-04-17 03:47:00,30.3,23.3,30.48,WNW,299,0.0,0.0,75,0.00,,,0.00,0,Wunderground v.1.15,2013-04-17 08:47:00,
2013-04-17 03:48:00,30.4,23.4,30.47,WNW,299,0.0,0.0,75,0.00,,,0.00,0,Wunderground v.1.15,2013-04-17 08:48:00,
2013-04-17 03:49:00,30.4,23.4,30.48,WNW,299,0.0,0.0,75,0.00,,,0.00,0,Wunderground v.1.15,2013-04-17 08:49:00,
2013-04-17 03:50:00,30.4,23.4,30.47,WNW,299,0.0,0.0,75,0.00,,,0.00,0,Wunderground v.1.15,2013-04-17 08:50:00,
2013-04-17 03:52:00,30.5,23.5,30.48,WNW,299,0.0,0.0,75,0.00,,,0.00,0,Wunderground v.1.15,2013-04-17 08:52:00,
2013-04-17 03:54:00,30.7,24.0,30.48,WNW,299,0.0,0.0,76,0.00,,,0.00,0,Wunderground v.1.15,2013-04-17 08:54:00,
2013-04-17 03:55:00,30.8,23.8,30.47,WNW,299,0.0,0.0,75,0.00,,,0.00,0,Wunderground v.1.15,2013-04-17 08:55:00,
2013-04-17 03:57:00,30.9,23.9,30.47,WNW,299,0.0,1.0,75,0.00,,,0.00,0,Wunderground v.1.15,2013-04-17 08:57:00,
2013-04-17 03:59:00,31.1,24.1,30.47,WNW,299,0.0,1.0,75,0.00,,,0.00,0,Wunderground v.1.15,2013-04-17 08:59:00,
2013-04-17 04:00:00,31.2,24.2,30.47,WNW,299,0.0,1.0,75,0.00,,,0.00,0,Wunderground v.1.15,2013-04-17 09:00:00,
2013-04-17 04:02:00,31.2,24.2,30.47,WNW,299,0.0,0.0,75,0.00,,,0.00,0,Wunderground v.1.15,2013-04-17 09:02:00,
2013-04-17 04:03:00,31.2,24.2,30.47,WNW,299,0.0,0.0,75,0.00,,,0.00,0,Wunderground v.1.15,2013-04-17 09:03:00,
2013-04-17 04:04:00,31.4,24.4,30.46,WNW,300,0.0,2.0,75,0.00,,,0.00,0,Wunderground v.1.15,2013-04-17 09:04:00,
2013-04-17 04:05:00,31.5,24.5,30.47,WNW,300,0.0,2.0,75,0.00,,,0.00,0,Wunderground v.1.15,2013-04-17 09:05:00,
2013-04-17 04:07:00,31.7,24.7,30.47,WNW,300,0.0,2.0,75,0.00,,,0.00,0,Wunderground v.1.15,2013-04-17 09:07:00,
2013-04-17 04:08:00,31.9,24.9,30.47,WNW,301,0.0,2.0,75,0.00,,,0.00,0,Wunderground v.1.15,2013-04-17 09:08:00,
2013-04-17 04:10:00,32.1,24.7,30.46,WNW,301,0.0,2.0,74,0.00,,,0.00,0,Wunderground v.1.15,2013-04-17 09:10:00,
2013-04-17 04:12:00,32.3,24.9,30.47,WNW,300,0.0,0.0,74,0.00,,,0.00,0,Wunderground v.1.15,2013-04-17 09:12:00,
2013-04-17 04:13:00,32.4,25.0,30.47,WNW,301,0.0,0.0,74,0.00,,,0.00,0,Wunderground v.1.15,2013-04-17 09:13:00,
2013-04-17 04:15:00,32.5,25.1,30.47,WNW,301,0.0,0.0,74,0.00,,,0.00,0,Wunderground v.1.15,2013-04-17 09:15:00,
2013-04-17 04:16:00,32.5,24.8,30.47,WNW,301,0.0,0.0,73,0.00,,,0.00,0,Wunderground v.1.15,2013-04-17 09:16:00,
2013-04-17 04:17:00,32.6,24.9,30.47,WNW,301,0.0,0.0,73,0.00,,,0.00,0,Wunderground v.1.15,2013-04-17 09:17:00,
2013-04-17 04:18:00,32.6,24.9,30.46,WNW,301,0.0,0.0,73,0.00,,,0.00,0,Wunderground v.1.15,2013-04-17 09:18:00,
2013-04-17 04:20:00,32.7,25.0,30.46,WNW,301,0.0,0.0,73,0.00,,,0.00,0,Wunderground v.1.15,2013-04-17 09:20:00,
2013-04-17 04:21:00,32.7,25.0,30.47,WNW,301,0.0,0.0,73,0.00,,,0.00,0,Wunderground v.1.15,2013-04-17 09:21:00,
2013-04-17 04:22:00,32.7,25.0,30.46,WNW,301,0.0,0.0,73,0.00,,,0.00,0,Wunderground v.1.15,2013-04-17 09:22:00,
2013-04-17 04:23:00,32.7,25.0,30.47,WNW,301,0.0,0.0,73,0.00,,,0.00,0,Wunderground v.1.15,2013-04-17 09:23:00,
2013-04-17 04:26:00,32.8,24.8,30.46,WNW,301,0.0,0.0,72,0.00,,,0.00,0,Wunderground v.1.15,2013-04-17 09:26:00,
2013-04-17 04:27:00,32.9,24.9,30.46,WNW,301,0.0,1.0,72,0.00,,,0.00,0,Wunderground v.1.15,2013-04-17 09:27:00,
2013-04-17 04:28:00,32.9,24.9,30.46,WNW,301,0.0,1.0,72,0.00,,,0.00,0,Wunderground v.1.15,2013-04-17 09:28:00,
2013-04-17 04:31:00,33.1,24.7,30.45,WNW,301,0.0,0.0,71,0.00,,,0.00,0,Wunderground v.1.15,2013-04-17 09:31:00,
2013-04-17 04:32:00,33.0,24.6,30.45,WNW,301,0.0,0.0,71,0.00,,,0.00,0,Wunderground v.1.15,2013-04-17 09:32:00,
2013-04-17 04:33:00,33.1,24.7,30.45,WNW,301,0.0,0.0,71,0.00,,,0.00,0,Wunderground v.1.15,2013-04-17 09:33:00,
2013-04-17 04:36:00,33.1,24.7,30.45,WNW,301,0.0,0.0,71,0.00,,,0.00,0,Wunderground v.1.15,2013-04-17 09:36:00,
2013-04-17 04:37:00,33.1,24.4,30.44,WNW,301,0.0,0.0,70,0.00,,,0.00,0,Wunderground v.1.15,2013-04-17 09:37:00,
2013-04-17 04:38:00,33.1,24.7,30.45,WNW,301,0.0,0.0,71,0.00,,,0.00,0,Wunderground v.1.15,2013-04-17 09:38:00,
2013-04-17 04:39:00,33.1,24.4,30.45,WNW,301,0.0,0.0,70,0.00,,,0.00,0,Wunderground v.1.15,2013-04-17 09:39:00,
2013-04-17 04:42:00,33.1,24.4,30.44,WNW,301,0.0,1.0,70,0.00,,,0.00,0,Wunderground v.1.15,2013-04-17 09:42:00,
2013-04-17 04:43:00,33.1,24.4,30.44,WNW,301,0.0,1.0,70,0.00,,,0.00,0,Wunderground v.1.15,2013-04-17 09:43:00,
2013-04-17 04:44:00,33.1,24.4,30.44,WNW,301,0.0,1.0,70,0.00,,,0.00,0,Wunderground v.1.15,2013-04-17 09:44:00,
2013-04-17 04:47:00,33.0,24.3,30.44,WNW,301,0.0,1.0,70,0.00,,,0.00,0,Wunderground v.1.15,2013-04-17 09:47:00,
2013-04-17 04:48:00,33.0,24.3,30.44,WNW,301,0.0,1.0,70,0.00,,,0.00,0,Wunderground v.1.15,2013-04-17 09:48:00,
2013-04-17 04:49:00,33.0,24.3,30.44,WNW,301,0.0,1.0,70,0.00,,,0.00,0,Wunderground v.1.15,2013-04-17 09:49:00,
2013-04-17 04:52:00,33.0,24.3,30.43,WNW,301,0.0,0.0,70,0.00,,,0.00,0,Wunderground v.1.15,2013-04-17 09:52:00,
2013-04-17 04:53:00,33.0,24.3,30.43,WNW,301,0.0,0.0,70,0.00,,,0.00,0,Wunderground v.1.15,2013-04-17 09:53:00,
2013-04-17 04:54:00,33.1,24.4,30.44,WNW,301,0.0,0.0,70,0.00,,,0.00,0,Wunderground v.1.15,2013-04-17 09:54:00,
2013-04-17 04:57:00,33.1,24.4,30.43,WNW,303,0.0,2.0,70,0.00,,,0.00,0,Wunderground v.1.15,2013-04-17 09:57:00,
2013-04-17 04:58:00,33.1,24.4,30.43,WNW,303,0.0,2.0,70,0.00,,,0.00,0,Wunderground v.1.15,2013-04-17 09:58:00,
2013-04-17 04:59:00,33.2,24.5,30.43,WNW,302,0.0,2.0,70,0.00,,,0.00,0,Wunderground v.1.15,2013-04-17 09:59:00,
2013-04-17 05:02:00,33.2,24.1,30.43,WNW,303,0.0,0.0,69,0.00,,,0.00,0,Wunderground v.1.15,2013-04-17 10:02:00,
2013-04-17 05:03:00,33.3,24.2,30.43,WNW,303,0.0,0.0,69,0.00,,,0.00,0,Wunderground v.1.15,2013-04-17 10:03:00,
2013-04-17 05:07:00,33.3,24.2,30.43,WNW,303,0.0,0.0,69,0.00,,,0.00,0,Wunderground v.1.15,2013-04-17 10:07:00,
2013-04-17 05:08:00,33.4,24.0,30.43,WNW,303,0.0,0.0,68,0.00,,,0.00,0,Wunderground v.1.15,2013-04-17 10:08:00,
2013-04-17 05:09:00,33.3,23.9,30.43,WNW,303,0.0,0.0,68,0.00,,,0.00,0,Wunderground v.1.15,2013-04-17 10:09:00,
2013-04-17 05:12:00,33.4,24.0,30.42,WNW,303,0.0,0.0,68,0.00,,,0.00,0,Wunderground v.1.15,2013-04-17 10:12:00,
2013-04-17 05:13:00,33.4,24.0,30.43,WNW,303,0.0,0.0,68,0.00,,,0.00,0,Wunderground v.1.15,2013-04-17 10:13:00,
2013-04-17 05:14:00,33.4,24.0,30.43,WNW,303,0.0,0.0,68,0.00,,,0.00,0,Wunderground v.1.15,2013-04-17 10:14:00,
2013-04-17 05:17:00,33.5,24.1,30.42,WNW,303,0.0,0.0,68,0.00,,,0.00,0,Wunderground v.1.15,2013-04-17 10:17:00,
2013-04-17 05:18:00,33.5,24.1,30.42,WNW,303,0.0,0.0,68,0.00,,,0.00,0,Wunderground v.1.15,2013-04-17 10:18:00,
2013-04-17 05:19:00,33.5,24.1,30.42,WNW,303,0.0,0.0,68,0.00,,,0.00,0,Wunderground v.1.15,2013-04-17 10:19:00,
2013-04-17 05:23:00,33.5,23.7,30.42,NW,304,0.0,0.0,67,0.00,,,0.00,0,Wunderground v.1.15,2013-04-17 10:23:00,
2013-04-17 05:24:00,33.5,23.7,30.41,NW,304,0.0,0.0,67,0.00,,,0.00,0,Wunderground v.1.15,2013-04-17 10:24:00,
2013-04-17 05:25:00,33.5,23.7,30.41,NW,304,0.0,0.0,67,0.00,,,0.00,0,Wunderground v.1.15,2013-04-17 10:25:00,
2013-04-17 05:28:00,33.4,23.6,30.41,NW,304,0.0,1.0,67,0.00,,,0.00,0,Wunderground v.1.15,2013-04-17 10:28:00,
2013-04-17 05:29:00,33.4,23.6,30.41,NW,305,0.0,1.0,67,0.00,,,0.00,0,Wunderground v.1.15,2013-04-17 10:29:00,
2013-04-17 05:30:00,33.4,23.6,30.41,NW,305,0.0,1.0,67,0.00,,,0.00,0,Wunderground v.1.15,2013-04-17 10:30:00,
2013-04-17 05:33:00,33.5,23.7,30.40,NW,305,0.0,1.0,67,0.00,,,0.00,0,Wunderground v.1.15,2013-04-17 10:33:00,
2013-04-17 05:34:00,33.5,23.4,30.40,NW,305,0.0,1.0,66,0.00,,,0.00,0,Wunderground v.1.15,2013-04-17 10:34:00,
2013-04-17 05:35:00,33.5,23.4,30.40,NW,305,0.0,1.0,66,0.00,,,0.00,0,Wunderground v.1.15,2013-04-17 10:35:00,
2013-04-17 05:36:00,33.5,23.4,30.40,NW,305,0.0,1.0,66,0.00,,,0.00,0,Wunderground v.1.15,2013-04-17 10:36:00,
2013-04-17 05:38:00,33.5,23.4,30.40,NW,305,0.0,1.0,66,0.00,,,0.00,0,Wunderground v.1.15,2013-04-17 10:38:00,
2013-04-17 05:39:00,33.5,23.4,30.40,NW,305,0.0,1.0,66,0.00,,,0.00,0,Wunderground v.1.15,2013-04-17 10:39:00,
2013-04-17 05:41:00,33.5,23.4,30.40,NW,305,0.0,0.0,66,0.00,,,0.00,0,Wunderground v.1.15,2013-04-17 10:41:00,
2013-04-17 05:43:00,33.5,23.4,30.40,NW,305,0.0,1.0,66,0.00,,,0.00,0,Wunderground v.1.15,2013-04-17 10:43:00,
2013-04-17 05:44:00,33.5,23.4,30.39,NW,305,0.0,1.0,66,0.00,,,0.00,0,Wunderground v.1.15,2013-04-17 10:44:00,
2013-04-17 05:46:00,33.5,23.4,30.40,NW,305,0.0,1.0,66,0.00,,,0.00,0,Wunderground v.1.15,2013-04-17 10:46:00,
2013-04-17 05:48:00,33.5,23.4,30.40,NW,305,0.0,1.0,66,0.00,,,0.00,0,Wunderground v.1.15,2013-04-17 10:48:00,
2013-04-17 05:49:00,33.5,23.4,30.40,NW,305,0.0,1.0,66,0.00,,,0.00,0,Wunderground v.1.15,2013-04-17 10:49:00,
2013-04-17 05:52:00,33.5,23.0,30.39,NW,307,0.0,1.0,65,0.00,,,0.00,0,Wunderground v.1.15,2013-04-17 10:52:00,
2013-04-17 05:53:00,33.5,23.0,30.39,NW,308,0.0,1.0,65,0.00,,,0.00,0,Wunderground v.1.15,2013-04-17 10:53:00,
2013-04-17 05:54:00,33.5,23.0,30.40,NW,307,0.0,1.0,65,0.00,,,0.00,0,Wunderground v.1.15,2013-04-17 10:54:00,
2013-04-17 05:57:00,33.6,23.1,30.40,NW,310,0.0,1.0,65,0.00,,,0.00,0,Wunderground v.1.15,2013-04-17 10:57:00,
2013-04-17 05:58:00,33.6,23.1,30.40,NW,310,0.0,1.0,65,0.00,,,0.00,0,Wunderground v.1.15,2013-04-17 10:58:00,
2013-04-17 05:59:00,33.6,23.1,30.40,NW,310,0.0,1.0,65,0.00,,,0.00,0,Wunderground v.1.15,2013-04-17 10:59:00,
2013-04-17 06:02:00,33.6,23.1,30.40,NW,310,0.0,0.0,65,0.00,,,0.00,0,Wunderground v.1.15,2013-04-17 11:02:00,
2013-04-17 06:03:00,33.6,23.1,30.40,NW,310,0.0,0.0,65,0.00,,,0.00,0,Wunderground v.1.15,2013-04-17 11:03:00,
2013-04-17 06:04:00,33.6,23.1,30.40,NW,310,0.0,0.0,65,0.00,,,0.00,0,Wunderground v.1.15,2013-04-17 11:04:00,
2013-04-17 06:05:00,33.5,23.0,30.40,NW,310,1.0,1.0,65,0.00,,,0.00,0,Wunderground v.1.15,2013-04-17 11:05:00,
2013-04-17 06:07:00,33.6,23.1,30.40,NW,310,0.0,1.0,65,0.00,,,0.00,0,Wunderground v.1.15,2013-04-17 11:07:00,
2013-04-17 06:09:00,33.5,23.0,30.39,NW,310,0.0,1.0,65,0.00,,,0.00,0,Wunderground v.1.15,2013-04-17 11:09:00,
2013-04-17 06:10:00,33.5,23.0,30.39,NW,311,0.0,1.0,65,0.00,,,0.00,0,Wunderground v.1.15,2013-04-17 11:10:00,
2013-04-17 06:12:00,33.5,23.0,30.40,NW,312,0.0,1.0,65,0.00,,,0.00,0,Wunderground v.1.15,2013-04-17 11:12:00,
2013-04-17 06:14:00,33.5,23.0,30.40,NW,312,0.0,1.0,65,0.00,,,0.00,0,Wunderground v.1.15,2013-04-17 11:14:00,
2013-04-17 06:15:00,33.5,23.0,30.40,NW,312,0.0,1.0,65,0.00,,,0.00,0,Wunderground v.1.15,2013-04-17 11:15:00,
2013-04-17 06:17:00,33.5,23.0,30.40,NW,312,0.0,1.0,65,0.00,,,0.00,0,Wunderground v.1.15,2013-04-17 11:17:00,
2013-04-17 06:18:00,33.6,23.1,30.40,NW,312,0.0,1.0,65,0.00,,,0.00,0,Wunderground v.1.15,2013-04-17 11:18:00,
2013-04-17 06:19:00,33.6,23.1,30.40,NW,312,0.0,1.0,65,0.00,,,0.00,0,Wunderground v.1.15,2013-04-17 11:19:00,
2013-04-17 06:20:00,33.6,22.7,30.40,NW,312,0.0,0.0,64,0.00,,,0.00,0,Wunderground v.1.15,2013-04-17 11:20:00,
2013-04-17 06:21:00,33.6,23.1,30.40,NW,318,2.0,3.0,65,0.00,,,0.00,0,Wunderground v.1.15,2013-04-17 11:21:00,
2013-04-17 06:22:00,33.6,23.1,30.40,NNW,329,0.0,3.0,65,0.00,,,0.00,0,Wunderground v.1.15,2013-04-17 11:22:00,
2013-04-17 06:23:00,33.7,22.8,30.40,NNW,329,0.0,3.0,64,0.00,,,0.00,0,Wunderground v.1.15,2013-04-17 11:23:00,
2013-04-17 06:24:00,33.7,22.8,30.40,NNW,333,1.0,3.0,64,0.00,,,0.00,0,Wunderground v.1.15,2013-04-17 11:24:00,
2013-04-17 06:25:00,33.7,22.8,30.41,NNW,333,0.0,3.0,64,0.00,,,0.00,0,Wunderground v.1.15,2013-04-17 11:25:00,
2013-04-17 06:26:00,33.7,22.8,30.41,NNW,333,0.0,3.0,64,0.00,,,0.00,0,Wunderground v.1.15,2013-04-17 11:26:00,
2013-04-17 06:27:00,33.8,22.9,30.41,NNW,333,0.0,3.0,64,0.00,,,0.00,0,Wunderground v.1.15,2013-04-17 11:27:00,
2013-04-17 06:28:00,33.8,22.9,30.41,NNW,333,0.0,3.0,64,0.00,,,0.00,0,Wunderground v.1.15,2013-04-17 11:28:00,
2013-04-17 06:30:00,33.9,23.0,30.40,NNW,333,0.0,3.0,64,0.00,,,0.00,0,Wunderground v.1.15,2013-04-17 11:30:00,
2013-04-17 06:31:00,33.9,23.0,30.41,NNW,333,0.0,1.0,64,0.00,,,0.00,0,Wunderground v.1.15,2013-04-17 11:31:00,
2013-04-17 06:32:00,33.9,23.0,30.41,NNW,334,0.0,3.0,64,0.00,,,0.00,0,Wunderground v.1.15,2013-04-17 11:32:00,
2013-04-17 06:33:00,33.9,23.0,30.41,NNW,334,0.0,3.0,64,0.00,,,0.00,0,Wunderground v.1.15,2013-04-17 11:33:00,
2013-04-17 06:35:00,33.9,23.0,30.42,NNW,334,0.0,3.0,64,0.00,,,0.00,0,Wunderground v.1.15,2013-04-17 11:35:00,
2013-04-17 06:36:00,34.0,22.7,30.41,NNW,334,0.0,3.0,63,0.00,,,0.00,0,Wunderground v.1.15,2013-04-17 11:36:00,
2013-04-17 06:38:00,34.0,22.7,30.42,NNW,334,0.0,3.0,63,0.00,,,0.00,0,Wunderground v.1.15,2013-04-17 11:38:00,
2013-04-17 06:40:00,34.1,22.8,30.43,NNW,345,0.0,0.0,63,0.00,,,0.00,0,Wunderground v.1.15,2013-04-17 11:40:00,
2013-04-17 06:41:00,34.1,23.2,30.43,NNW,346,0.0,0.0,64,0.00,,,0.00,0,Wunderground v.1.15,2013-04-17 11:41:00,
2013-04-17 06:43:00,34.1,22.8,30.43,NNW,346,0.0,0.0,63,0.00,,,0.00,0,Wunderground v.1.15,2013-04-17 11:43:00,
2013-04-17 06:44:00,34.2,23.3,30.43,NNW,346,0.0,0.0,64,0.00,,,0.00,0,Wunderground v.1.15,2013-04-17 11:44:00,
2013-04-17 06:45:00,34.2,22.9,30.44,NNW,346,0.0,0.0,63,0.00,,,0.00,0,Wunderground v.1.15,2013-04-17 11:45:00,
2013-04-17 06:46:00,34.2,22.9,30.44,NNW,346,0.0,0.0,63,0.00,,,0.00,0,Wunderground v.1.15,2013-04-17 11:46:00,
2013-04-17 06:48:00,34.2,22.9,30.44,NNW,346,1.0,1.0,63,0.00,,,0.00,0,Wunderground v.1.15,2013-04-17 11:48:00,
2013-04-17 06:49:00,34.3,23.0,30.45,NNW,348,0.0,4.0,63,0.00,,,0.00,0,Wunderground v.1.15,2013-04-17 11:49:00,
2013-04-17 06:51:00,34.3,23.0,30.45,NNW,348,1.0,2.0,63,0.00,,,0.00,0,Wunderground v.1.15,2013-04-17 11:51:00,
2013-04-17 06:53:00,34.5,23.2,30.46,NNW,348,0.0,4.0,63,0.00,,,0.00,0,Wunderground v.1.15,2013-04-17 11:53:00,
2013-04-17 06:54:00,34.5,23.2,30.46,NNW,348,0.0,4.0,63,0.00,,,0.00,0,Wunderground v.1.15,2013-04-17 11:54:00,
2013-04-17 06:56:00,34.6,23.3,30.46,North,354,0.0,5.0,63,0.00,,,0.00,0,Wunderground v.1.15,2013-04-17 11:56:00,
2013-04-17 06:59:00,34.7,23.0,30.48,North,354,0.0,5.0,62,0.00,,,0.00,0,Wunderground v.1.15,2013-04-17 11:59:00,
2013-04-17 07:01:00,34.8,23.1,30.47,North,354,0.0,1.0,62,0.00,,,0.00,0,Wunderground v.1.15,2013-04-17 12:01:00,
2013-04-17 07:02:00,34.8,23.1,30.47,North,354,0.0,1.0,62,0.00,,,0.00,0,Wunderground v.1.15,2013-04-17 12:02:00,
2013-04-17 07:04:00,34.8,23.1,30.48,North,354,0.0,1.0,62,0.00,,,0.00,0,Wunderground v.1.15,2013-04-17 12:04:00,
2013-04-17 07:06:00,34.9,22.8,30.48,North,354,0.0,1.0,61,0.00,,,0.00,0,Wunderground v.1.15,2013-04-17 12:06:00,
2013-04-17 07:07:00,34.8,23.1,30.48,North,354,0.0,1.0,62,0.00,,,0.00,0,Wunderground v.1.15,2013-04-17 12:07:00,
2013-04-17 07:09:00,34.9,23.2,30.47,North,354,0.0,1.0,62,0.00,,,0.00,0,Wunderground v.1.15,2013-04-17 12:09:00,
2013-04-17 07:10:00,34.9,23.2,30.47,North,354,0.0,0.0,62,0.00,,,0.00,0,Wunderground v.1.15,2013-04-17 12:10:00,
2013-04-17 07:12:00,34.9,22.8,30.46,North,354,1.0,2.0,61,0.00,,,0.00,0,Wunderground v.1.15,2013-04-17 12:12:00,
2013-04-17 07:13:00,34.8,23.1,30.46,North,354,1.0,2.0,62,0.00,,,0.00,0,Wunderground v.1.15,2013-04-17 12:13:00,
2013-04-17 07:14:00,34.9,23.2,30.46,North,354,0.0,2.0,62,0.00,,,0.00,0,Wunderground v.1.15,2013-04-17 12:14:00,
2013-04-17 07:16:00,34.8,23.1,30.46,North,354,0.0,2.0,62,0.00,,,0.00,0,Wunderground v.1.15,2013-04-17 12:16:00,
2013-04-17 07:17:00,34.8,23.1,30.46,North,354,0.0,2.0,62,0.00,,,0.00,0,Wunderground v.1.15,2013-04-17 12:17:00,
2013-04-17 07:18:00,34.8,22.7,30.46,North,354,0.0,2.0,61,0.00,,,0.00,0,Wunderground v.1.15,2013-04-17 12:18:00,
2013-04-17 07:20:00,34.8,23.1,30.46,North,354,0.0,2.0,62,0.00,,,0.00,0,Wunderground v.1.15,2013-04-17 12:20:00,
2013-04-17 07:21:00,34.8,22.7,30.46,North,354,0.0,1.0,61,0.00,,,0.00,0,Wunderground v.1.15,2013-04-17 12:21:00,
2013-04-17 07:22:00,34.8,23.1,30.46,North,354,0.0,1.0,62,0.00,,,0.00,0,Wunderground v.1.15,2013-04-17 12:22:00,
2013-04-17 07:23:00,34.8,23.1,30.45,North,354,0.0,1.0,62,0.00,,,0.00,0,Wunderground v.1.15,2013-04-17 12:23:00,
2013-04-17 07:25:00,34.8,23.1,30.45,North,354,0.0,2.0,62,0.00,,,0.00,0,Wunderground v.1.15,2013-04-17 12:25:00,
2013-04-17 07:27:00,34.8,23.1,30.45,North,354,0.0,2.0,62,0.00,,,0.00,0,Wunderground v.1.15,2013-04-17 12:27:00,
2013-04-17 07:28:00,34.7,23.0,30.45,North,0,5.0,6.0,62,0.00,,,0.00,0,Wunderground v.1.15,2013-04-17 12:28:00,
2013-04-17 07:29:00,34.7,23.0,30.45,North,2,4.0,6.0,62,0.00,,,0.00,0,Wunderground v.1.15,2013-04-17 12:29:00,
2013-04-17 07:30:00,34.7,23.0,30.44,North,2,0.0,0.0,62,0.00,,,0.00,0,Wunderground v.1.15,2013-04-17 12:30:00,
2013-04-17 07:32:00,34.7,23.0,30.44,NNE,15,1.0,6.0,62,0.00,,,0.00,0,Wunderground v.1.15,2013-04-17 12:32:00,
2013-04-17 07:33:00,34.7,23.0,30.45,NNE,15,3.0,6.0,62,0.00,,,0.00,0,Wunderground v.1.15,2013-04-17 12:33:00,
2013-04-17 07:34:00,34.7,23.0,30.45,NNE,15,1.0,6.0,62,0.00,,,0.00,0,Wunderground v.1.15,2013-04-17 12:34:00,
2013-04-17 07:36:00,34.7,23.0,30.44,NNE,15,0.0,6.0,62,0.00,,,0.00,0,Wunderground v.1.15,2013-04-17 12:36:00,
2013-04-17 07:37:00,34.7,23.0,30.44,NNE,30,5.0,7.0,62,0.00,,,0.00,0,Wunderground v.1.15,2013-04-17 12:37:00,
2013-04-17 07:38:00,34.7,23.0,30.44,NNE,30,4.0,7.0,62,0.00,,,0.00,0,Wunderground v.1.15,2013-04-17 12:38:00,
2013-04-17 07:39:00,34.7,23.0,30.44,NNE,30,2.0,7.0,62,0.00,,,0.00,0,Wunderground v.1.15,2013-04-17 12:39:00,
2013-04-17 07:41:00,34.7,23.0,30.43,NE,37,7.0,8.0,62,0.00,,,0.00,0,Wunderground v.1.15,2013-04-17 12:41:00,
2013-04-17 07:42:00,34.7,23.0,30.43,NE,38,2.0,8.0,62,0.00,,,0.00,0,Wunderground v.1.15,2013-04-17 12:42:00,
2013-04-17 07:43:00,34.7,23.0,30.43,NE,38,1.0,8.0,62,0.00,,,0.00,0,Wunderground v.1.15,2013-04-17 12:43:00,
2013-04-17 07:44:00,34.7,23.0,30.43,NE,38,4.0,8.0,62,0.00,,,0.00,0,Wunderground v.1.15,2013-04-17 12:44:00,
2013-04-17 07:46:00,34.7,23.0,30.43,NE,39,1.0,8.0,62,0.00,,,0.00,0,Wunderground v.1.15,2013-04-17 12:46:00,
2013-04-17 07:47:00,34.7,23.0,30.42,NE,39,4.0,8.0,62,0.00,,,0.00,0,Wunderground v.1.15,2013-04-17 12:47:00,
2013-04-17 07:48:00,34.7,23.4,30.43,NE,40,5.0,8.0,63,0.00,,,0.00,0,Wunderground v.1.15,2013-04-17 12:48:00,
2013-04-17 07:49:00,34.6,22.9,30.43,NE,40,1.0,8.0,62,0.00,,,0.00,0,Wunderground v.1.15,2013-04-17 12:49:00,
2013-04-17 07:51:00,34.6,23.3,30.43,NE,46,5.0,9.0,63,0.00,,,0.00,0,Wunderground v.1.15,2013-04-17 12:51:00,
2013-04-17 07:52:00,34.6,23.3,30.43,NE,46,5.0,9.0,63,0.00,,,0.00,0,Wunderground v.1.15,2013-04-17 12:52:00,
2013-04-17 07:53:00,34.7,23.4,30.42,NE,47,8.0,9.0,63,0.00,,,0.00,0,Wunderground v.1.15,2013-04-17 12:53:00,
2013-04-17 07:54:00,34.7,23.0,30.42,NE,48,4.0,9.0,62,0.00,,,0.00,0,Wunderground v.1.15,2013-04-17 12:54:00,
2013-04-17 07:57:00,34.7,23.0,30.42,ENE,58,10.0,12.0,62,0.00,,,0.00,0,Wunderground v.1.15,2013-04-17 12:57:00,
2013-04-17 07:58:00,34.7,23.0,30.42,ENE,63,5.0,12.0,62,0.00,,,0.00,0,Wunderground v.1.15,2013-04-17 12:58:00,
2013-04-17 07:59:00,34.7,23.0,30.42,ENE,63,6.0,12.0,62,0.00,,,0.00,0,Wunderground v.1.15,2013-04-17 12:59:00,
2013-04-17 08:00:00,34.7,23.0,30.42,ENE,63,4.0,12.0,62,0.00,,,0.00,0,Wunderground v.1.15,2013-04-17 13:00:00,
2013-04-17 08:02:00,34.7,23.0,30.43,ENE,62,11.0,11.0,62,0.00,,,0.00,0,Wunderground v.1.15,2013-04-17 13:02:00,
2013-04-17 08:04:00,34.7,23.0,30.42,ENE,62,5.0,12.0,62,0.00,,,0.00,0,Wunderground v.1.15,2013-04-17 13:04:00,
2013-04-17 08:05:00,34.7,23.0,30.43,ENE,62,5.0,12.0,62,0.00,,,0.00,0,Wunderground v.1.15,2013-04-17 13:05:00,
2013-04-17 08:07:00,34.7,23.0,30.43,ENE,62,3.0,12.0,62,0.00,,,0.00,0,Wunderground v.1.15,2013-04-17 13:07:00,
2013-04-17 08:08:00,34.7,23.0,30.43,ENE,62,4.0,12.0,62,0.00,,,0.00,0,Wunderground v.1.15,2013-04-17 13:08:00,
2013-04-17 08:09:00,34.7,23.0,30.43,ENE,61,8.0,12.0,62,0.00,,,0.00,0,Wunderground v.1.15,2013-04-17 13:09:00,
2013-04-17 08:10:00,34.7,23.0,30.43,ENE,63,3.0,4.0,62,0.00,,,0.00,0,Wunderground v.1.15,2013-04-17 13:10:00,
2013-04-17 08:12:00,34.7,23.4,30.43,ENE,63,1.0,7.0,63,0.00,,,0.00,0,Wunderground v.1.15,2013-04-17 13:12:00,
2013-04-17 08:13:00,34.8,23.5,30.43,ENE,63,5.0,8.0,63,0.00,,,0.00,0,Wunderground v.1.15,2013-04-17 13:13:00,
2013-04-17 08:14:00,34.8,23.5,30.43,ENE,63,4.0,9.0,63,0.00,,,0.00,0,Wunderground v.1.15,2013-04-17 13:14:00,
2013-04-17 08:15:00,34.8,23.1,30.43,ENE,62,4.0,11.0,62,0.00,,,0.00,0,Wunderground v.1.15,2013-04-17 13:15:00,
2013-04-17 08:17:00,34.8,23.5,30.42,ENE,64,8.0,11.0,63,0.00,,,0.00,0,Wunderground v.1.15,2013-04-17 13:17:00,
2013-04-17 08:18:00,34.8,23.5,30.43,ENE,64,5.0,11.0,63,0.00,,,0.00,0,Wunderground v.1.15,2013-04-17 13:18:00,
2013-04-17 08:19:00,34.8,23.5,30.43,ENE,64,5.0,11.0,63,0.00,,,0.00,0,Wunderground v.1.15,2013-04-17 13:19:00,
2013-04-17 08:21:00,34.8,23.5,30.43,ENE,63,5.0,6.0,63,0.00,,,0.00,0,Wunderground v.1.15,2013-04-17 13:21:00,
2013-04-17 08:23:00,34.9,23.6,30.43,ENE,63,6.0,9.0,63,0.00,,,0.00,0,Wunderground v.1.15,2013-04-17 13:23:00,
2013-04-17 08:24:00,34.8,23.5,30.43,ENE,64,3.0,9.0,63,0.00,,,0.00,0,Wunderground v.1.15,2013-04-17 13:24:00,
2013-04-17 08:27:00,34.9,23.6,30.44,ENE,62,4.0,9.0,63,0.00,,,0.00,0,Wunderground v.1.15,2013-04-17 13:27:00,
2013-04-17 08:28:00,34.9,23.6,30.43,ENE,62,3.0,9.0,63,0.00,,,0.00,0,Wunderground v.1.15,2013-04-17 13:28:00,
2013-04-17 08:29:00,34.9,23.6,30.43,ENE,62,0.0,9.0,63,0.00,,,0.00,0,Wunderground v.1.15,2013-04-17 13:29:00,
2013-04-17 08:32:00,35.0,23.7,30.44,ENE,62,2.0,5.0,63,0.00,,,0.00,0,Wunderground v.1.15,2013-04-17 13:32:00,
2013-04-17 08:33:00,35.0,23.7,30.44,ENE,58,4.0,8.0,63,0.00,,,0.00,0,Wunderground v.1.15,2013-04-17 13:33:00,
2013-04-17 08:34:00,35.0,23.7,30.44,ENE,58,4.0,8.0,63,0.00,,,0.00,0,Wunderground v.1.15,2013-04-17 13:34:00,
2013-04-17 08:37:00,35.1,23.8,30.44,ENE,58,11.0,11.0,63,0.00,,,0.00,0,Wunderground v.1.15,2013-04-17 13:37:00,
2013-04-17 08:38:00,35.1,23.4,30.43,ENE,60,6.0,11.0,62,0.00,,,0.00,0,Wunderground v.1.15,2013-04-17 13:38:00,
2013-04-17 08:39:00,35.0,23.7,30.44,ENE,62,6.0,11.0,63,0.00,,,0.00,0,Wunderground v.1.15,2013-04-17 13:39:00,
2013-04-17 08:40:00,35.0,23.7,30.44,ENE,62,1.0,4.0,63,0.00,,,0.00,0,Wunderground v.1.15,2013-04-17 13:40:00,
2013-04-17 08:42:00,35.0,23.3,30.44,ENE,62,3.0,9.0,62,0.00,,,0.00,0,Wunderground v.1.15,2013-04-17 13:42:00,
2013-04-17 08:43:00,35.0,23.3,30.44,ENE,63,6.0,9.0,62,0.00,,,0.00,0,Wunderground v.1.15,2013-04-17 13:43:00,
2013-04-17 08:44:00,35.1,23.4,30.44,ENE,63,1.0,9.0,62,0.00,,,0.00,0,Wunderground v.1.15,2013-04-17 13:44:00,
2013-04-17 08:45:00,35.1,23.8,30.43,ENE,63,4.0,9.0,63,0.00,,,0.00,0,Wunderground v.1.15,2013-04-17 13:45:00,
2013-04-17 08:46:00,35.1,23.4,30.44,ENE,63,1.0,9.0,62,0.00,,,0.00,0,Wunderground v.1.15,2013-04-17 13:46:00,
2013-04-17 08:47:00,35.1,23.4,30.43,ENE,63,0.0,9.0,62,0.00,,,0.00,0,Wunderground v.1.15,2013-04-17 13:47:00,
2013-04-17 08:49:00,35.1,23.4,30.44,ENE,63,4.0,9.0,62,0.00,,,0.00,0,Wunderground v.1.15,2013-04-17 13:49:00,
2013-04-17 08:50:00,35.1,23.4,30.43,ENE,63,5.0,9.0,62,0.00,,,0.00,0,Wunderground v.1.15,2013-04-17 13:50:00,
2013-04-17 08:51:00,35.1,23.4,30.44,ENE,58,4.0,9.0,62,0.00,,,0.00,0,Wunderground v.1.15,2013-04-17 13:51:00,
2013-04-17 08:53:00,35.1,23.4,30.43,ENE,58,6.0,9.0,62,0.00,,,0.00,0,Wunderground v.1.15,2013-04-17 13:53:00,
2013-04-17 08:55:00,35.0,23.3,30.43,ENE,58,4.0,9.0,62,0.00,,,0.00,0,Wunderground v.1.15,2013-04-17 13:55:00,
2013-04-17 08:56:00,35.0,23.3,30.43,ENE,59,6.0,9.0,62,0.00,,,0.00,0,Wunderground v.1.15,2013-04-17 13:56:00,
2013-04-17 08:58:00,35.0,23.3,30.43,ENE,57,6.0,9.0,62,0.00,,,0.00,0,Wunderground v.1.15,2013-04-17 13:58:00,
2013-04-17 09:00:00,35.0,23.3,30.43,ENE,57,9.0,9.0,62,0.00,,,0.00,0,Wunderground v.1.15,2013-04-17 14:00:00,
2013-04-17 09:01:00,35.0,23.3,30.43,ENE,57,4.0,6.0,62,0.00,,,0.00,0,Wunderground v.1.15,2013-04-17 14:01:00,
2013-04-17 09:02:00,35.0,23.3,30.42,ENE,58,2.0,6.0,62,0.00,,,0.00,0,Wunderground v.1.15,2013-04-17 14:02:00,
2013-04-17 09:03:00,35.0,23.3,30.42,ENE,58,5.0,6.0,62,0.00,,,0.00,0,Wunderground v.1.15,2013-04-17 14:03:00,
2013-04-17 09:05:00,35.0,23.3,30.42,ENE,57,1.0,6.0,62,0.00,,,0.00,0,Wunderground v.1.15,2013-04-17 14:05:00,
2013-04-17 09:06:00,35.0,23.3,30.42,ENE,60,7.0,11.0,62,0.00,,,0.00,0,Wunderground v.1.15,2013-04-17 14:06:00,
2013-04-17 09:07:00,35.1,23.4,30.42,ENE,59,6.0,11.0,62,0.00,,,0.00,0,Wunderground v.1.15,2013-04-17 14:07:00,
2013-04-17 09:09:00,35.1,23.4,30.42,ENE,59,0.0,11.0,62,0.00,,,0.00,0,Wunderground v.1.15,2013-04-17 14:09:00,
2013-04-17 09:10:00,35.1,23.4,30.42,ENE,59,3.0,4.0,62,0.00,,,0.00,0,Wunderground v.1.15,2013-04-17 14:10:00,
2013-04-17 09:11:00,35.1,23.4,30.42,ENE,59,1.0,5.0,62,0.00,,,0.00,0,Wunderground v.1.15,2013-04-17 14:11:00,
2013-04-17 09:12:00,35.1,23.4,30.42,ENE,59,0.0,5.0,62,0.00,,,0.00,0,Wunderground v.1.15,2013-04-17 14:12:00,
2013-04-17 09:14:00,35.1,23.4,30.42,ENE,59,2.0,5.0,62,0.00,,,0.00,0,Wunderground v.1.15,2013-04-17 14:14:00,
2013-04-17 09:15:00,35.1,23.4,30.42,ENE,61,0.0,9.0,62,0.00,,,0.00,0,Wunderground v.1.15,2013-04-17 14:15:00,
2013-04-17 09:17:00,35.1,23.4,30.42,ENE,61,4.0,9.0,62,0.00,,,0.00,0,Wunderground v.1.15,2013-04-17 14:17:00,
2013-04-17 09:19:00,35.1,23.4,30.41,ENE,61,4.0,9.0,62,0.00,,,0.00,0,Wunderground v.1.15,2013-04-17 14:19:00,
2013-04-17 09:20:00,35.1,23.4,30.41,ENE,61,0.0,1.0,62,0.00,,,0.00,0,Wunderground v.1.15,2013-04-17 14:20:00,
2013-04-17 09:22:00,35.1,23.4,30.41,ENE,61,3.0,6.0,62,0.00,,,0.00,0,Wunderground v.1.15,2013-04-17 14:22:00,
2013-04-17 09:25:00,35.2,23.5,30.41,ENE,61,3.0,6.0,62,0.00,,,0.00,0,Wunderground v.1.15,2013-04-17 14:25:00,
2013-04-17 09:27:00,35.3,23.6,30.41,ENE,61,0.0,6.0,62,0.00,,,0.00,0,Wunderground v.1.15,2013-04-17 14:27:00,
2013-04-17 09:28:00,35.3,23.6,30.40,ENE,61,0.0,6.0,62,0.00,,,0.00,0,Wunderground v.1.15,2013-04-17 14:28:00,
2013-04-17 09:30:00,35.4,23.7,30.41,ENE,61,2.0,6.0,62,0.00,,,0.00,0,Wunderground v.1.15,2013-04-17 14:30:00,
2013-04-17 09:32:00,35.4,23.7,30.41,ENE,61,4.0,5.0,62,0.00,,,0.00,0,Wunderground v.1.15,2013-04-17 14:32:00,
2013-04-17 09:33:00,35.4,23.7,30.41,ENE,61,6.0,6.0,62,0.00,,,0.00,0,Wunderground v.1.15,2013-04-17 14:33:00,
2013-04-17 09:34:00,35.4,23.7,30.40,ENE,62,7.0,7.0,62,0.00,,,0.00,0,Wunderground v.1.15,2013-04-17 14:34:00,
2013-04-17 09:35:00,35.5,23.8,30.41,ENE,62,3.0,8.0,62,0.00,,,0.00,0,Wunderground v.1.15,2013-04-17 14:35:00,
2013-04-17 09:37:00,35.5,23.8,30.41,ENE,61,2.0,8.0,62,0.00,,,0.00,0,Wunderground v.1.15,2013-04-17 14:37:00,
2013-04-17 09:38:00,35.5,23.8,30.40,ENE,61,0.0,8.0,62,0.00,,,0.00,0,Wunderground v.1.15,2013-04-17 14:38:00,
2013-04-17 09:40:00,35.5,23.8,30.41,ENE,62,0.0,8.0,62,0.00,,,0.00,0,Wunderground v.1.15,2013-04-17 14:40:00,
2013-04-17 09:42:00,35.5,23.8,30.41,ENE,59,6.0,7.0,62,0.00,,,0.00,0,Wunderground v.1.15,2013-04-17 14:42:00,
2013-04-17 09:43:00,35.5,23.4,30.41,ENE,63,3.0,12.0,61,0.00,,,0.00,0,Wunderground v.1.15,2013-04-17 14:43:00,
2013-04-17 09:45:00,35.4,23.3,30.41,ENE,59,1.0,12.0,61,0.00,,,0.00,0,Wunderground v.1.15,2013-04-17 14:45:00,
2013-04-17 09:47:00,35.4,23.7,30.40,ENE,59,0.0,12.0,62,0.00,,,0.00,0,Wunderground v.1.15,2013-04-17 14:47:00,
2013-04-17 09:48:00,35.4,23.7,30.40,ENE,59,1.0,12.0,62,0.00,,,0.00,0,Wunderground v.1.15,2013-04-17 14:48:00,
2013-04-17 09:50:00,35.4,23.7,30.41,ENE,59,0.0,0.0,62,0.00,,,0.00,0,Wunderground v.1.15,2013-04-17 14:50:00,
2013-04-17 09:52:00,35.4,23.7,30.40,ENE,59,1.0,1.0,62,0.00,,,0.00,0,Wunderground v.1.15,2013-04-17 14:52:00,
2013-04-17 09:53:00,35.4,23.7,30.41,ENE,59,0.0,3.0,62,0.00,,,0.00,0,Wunderground v.1.15,2013-04-17 14:53:00,
2013-04-17 09:54:00,35.4,23.7,30.41,ENE,59,0.0,3.0,62,0.00,,,0.00,0,Wunderground v.1.15,2013-04-17 14:54:00,
2013-04-17 09:55:00,35.4,23.7,30.41,ENE,59,0.0,3.0,62,0.00,,,0.00,0,Wunderground v.1.15,2013-04-17 14:55:00,
2013-04-17 09:57:00,35.4,23.7,30.41,ENE,59,0.0,3.0,62,0.00,,,0.00,0,Wunderground v.1.15,2013-04-17 14:57:00,
2013-04-17 09:58:00,35.4,23.7,30.40,ENE,59,0.0,3.0,62,0.00,,,0.00,0,Wunderground v.1.15,2013-04-17 14:58:00,
2013-04-17 09:59:00,35.4,23.7,30.41,ENE,59,1.0,3.0,62,0.00,,,0.00,0,Wunderground v.1.15,2013-04-17 14:59:00,
2013-04-17 10:00:00,35.5,23.8,30.40,ENE,59,1.0,1.0,62,0.00,,,0.00,0,Wunderground v.1.15,2013-04-17 15:00:00,
2013-04-17 10:02:00,35.5,24.1,30.40,ENE,60,2.0,2.0,63,0.00,,,0.00,0,Wunderground v.1.15,2013-04-17 15:02:00,
2013-04-17 10:03:00,35.5,24.1,30.40,ENE,59,0.0,4.0,63,0.00,,,0.00,0,Wunderground v.1.15,2013-04-17 15:03:00,
2013-04-17 10:04:00,35.5,24.1,30.40,ENE,59,2.0,4.0,63,0.00,,,0.00,0,Wunderground v.1.15,2013-04-17 15:04:00,
2013-04-17 10:06:00,35.5,23.8,30.40,ENE,59,3.0,7.0,62,0.00,,,0.00,0,Wunderground v.1.15,2013-04-17 15:06:00,
2013-04-17 10:07:00,35.5,23.8,30.41,ENE,59,3.0,7.0,62,0.00,,,0.00,0,Wunderground v.1.15,2013-04-17 15:07:00,
2013-04-17 10:08:00,35.6,23.9,30.40,ENE,59,2.0,7.0,62,0.00,,,0.00,0,Wunderground v.1.15,2013-04-17 15:08:00,
2013-04-17 10:09:00,35.6,23.9,30.40,ENE,59,0.0,7.0,62,0.00,,,0.00,0,Wunderground v.1.15,2013-04-17 15:09:00,
2013-04-17 10:12:00,35.6,23.9,30.40,ENE,60,5.0,6.0,62,0.00,,,0.00,0,Wunderground v.1.15,2013-04-17 15:12:00,
2013-04-17 10:13:00,35.5,23.8,30.41,ENE,60,3.0,6.0,62,0.00,,,0.00,0,Wunderground v.1.15,2013-04-17 15:13:00,
2013-04-17 10:14:00,35.5,23.8,30.41,ENE,60,6.0,6.0,62,0.00,,,0.00,0,Wunderground v.1.15,2013-04-17 15:14:00,
2013-04-17 10:18:00,35.5,23.8,30.41,ENE,60,1.0,7.0,62,0.00,,,0.00,0,Wunderground v.1.15,2013-04-17 15:18:00,
2013-04-17 10:19:00,35.5,24.1,30.41,ENE,60,0.0,7.0,63,0.00,,,0.00,0,Wunderground v.1.15,2013-04-17 15:19:00,
2013-04-17 10:20:00,35.5,23.8,30.41,ENE,60,0.0,7.0,62,0.00,,,0.00,0,Wunderground v.1.15,2013-04-17 15:20:00,
2013-04-17 10:23:00,35.5,24.1,30.42,ENE,60,0.0,3.0,63,0.00,,,0.00,0,Wunderground v.1.15,2013-04-17 15:23:00,
2013-04-17 10:24:00,35.6,24.2,30.42,ENE,60,6.0,7.0,63,0.00,,,0.00,0,Wunderground v.1.15,2013-04-17 15:24:00,
2013-04-17 10:25:00,35.5,24.1,30.42,ENE,60,4.0,7.0,63,0.00,,,0.00,0,Wunderground v.1.15,2013-04-17 15:25:00,
2013-04-17 10:28:00,35.6,24.2,30.42,ENE,59,0.0,7.0,63,0.00,,,0.00,0,Wunderground v.1.15,2013-04-17 15:28:00,
2013-04-17 10:29:00,35.6,24.2,30.42,ENE,59,4.0,7.0,63,0.00,,,0.00,0,Wunderground v.1.15,2013-04-17 15:29:00,
2013-04-17 10:30:00,35.5,24.1,30.42,ENE,59,7.0,7.0,63,0.00,,,0.00,0,Wunderground v.1.15,2013-04-17 15:30:00,
2013-04-17 10:33:00,35.5,24.1,30.42,ENE,59,3.0,8.0,63,0.00,,,0.00,0,Wunderground v.1.15,2013-04-17 15:33:00,
2013-04-17 10:34:00,35.5,24.1,30.42,ENE,59,4.0,8.0,63,0.00,,,0.00,0,Wunderground v.1.15,2013-04-17 15:34:00,
2013-04-17 10:35:00,35.5,24.1,30.42,ENE,59,8.0,10.0,63,0.00,,,0.00,0,Wunderground v.1.15,2013-04-17 15:35:00,
2013-04-17 10:38:00,35.4,24.0,30.43,ENE,60,5.0,10.0,63,0.00,,,0.00,0,Wunderground v.1.15,2013-04-17 15:38:00,
2013-04-17 10:39:00,35.4,24.0,30.44,ENE,60,3.0,10.0,63,0.00,,,0.00,0,Wunderground v.1.15,2013-04-17 15:39:00,
2013-04-17 10:40:00,35.4,24.0,30.43,ENE,60,1.0,10.0,63,0.00,,,0.00,0,Wunderground v.1.15,2013-04-17 15:40:00,
2013-04-17 10:43:00,35.4,24.0,30.43,ENE,60,6.0,9.0,63,0.00,,,0.00,0,Wunderground v.1.15,2013-04-17 15:43:00,
2013-04-17 10:44:00,35.4,24.0,30.43,ENE,63,3.0,9.0,63,0.00,,,0.00,0,Wunderground v.1.15,2013-04-17 15:44:00,
2013-04-17 10:45:00,35.4,24.0,30.43,ENE,63,2.0,9.0,63,0.00,,,0.00,0,Wunderground v.1.15,2013-04-17 15:45:00,
2013-04-17 10:49:00,35.4,24.4,30.43,ENE,62,2.0,9.0,64,0.00,,,0.00,0,Wunderground v.1.15,2013-04-17 15:49:00,
2013-04-17 10:50:00,35.4,24.4,30.43,ENE,62,4.0,9.0,64,0.00,,,0.00,0,Wunderground v.1.15,2013-04-17 15:50:00,
2013-04-17 10:54:00,35.5,24.5,30.44,ENE,63,7.0,10.0,64,0.00,,,0.00,0,Wunderground v.1.15,2013-04-17 15:54:00,
2013-04-17 10:55:00,35.4,24.4,30.44,ENE,62,6.0,10.0,64,0.00,,,0.00,0,Wunderground v.1.15,2013-04-17 15:55:00,
2013-04-17 10:56:00,35.4,24.4,30.43,ENE,63,6.0,10.0,64,0.00,,,0.00,0,Wunderground v.1.15,2013-04-17 15:56:00,
2013-04-17 10:59:00,35.4,24.4,30.43,ENE,60,4.0,11.0,64,0.00,,,0.00,0,Wunderground v.1.15,2013-04-17 15:59:00,
2013-04-17 11:00:00,35.4,24.4,30.43,ENE,60,4.0,7.0,64,0.00,,,0.00,0,Wunderground v.1.15,2013-04-17 16:00:00,
2013-04-17 11:01:00,35.3,24.3,30.43,ENE,60,5.0,7.0,64,0.00,,,0.00,0,Wunderground v.1.15,2013-04-17 16:01:00,
2013-04-17 11:04:00,35.3,24.3,30.44,ENE,58,8.0,10.0,64,0.00,,,0.00,0,Wunderground v.1.15,2013-04-17 16:04:00,
2013-04-17 11:06:00,35.3,24.7,30.43,ENE,61,4.0,12.0,65,0.00,,,0.00,0,Wunderground v.1.15,2013-04-17 16:06:00,
2013-04-17 11:09:00,35.3,24.7,30.43,ENE,63,7.0,12.0,65,0.00,,,0.00,0,Wunderground v.1.15,2013-04-17 16:09:00,
2013-04-17 11:11:00,35.2,24.6,30.42,ENE,63,5.0,6.0,65,0.00,,,0.00,0,Wunderground v.1.15,2013-04-17 16:11:00,
2013-04-17 11:12:00,35.2,24.6,30.42,ENE,63,5.0,6.0,65,0.00,,,0.00,0,Wunderground v.1.15,2013-04-17 16:12:00,
2013-04-17 11:14:00,35.2,24.6,30.41,ENE,64,5.0,11.0,65,0.00,,,0.00,0,Wunderground v.1.15,2013-04-17 16:14:00,
2013-04-17 11:17:00,35.1,24.9,30.41,NE,53,7.0,11.0,66,0.00,,,0.00,0,Wunderground v.1.15,2013-04-17 16:17:00,
2013-04-17 11:20:00,35.1,24.5,30.41,ENE,62,8.0,12.0,65,0.00,,,0.00,0,Wunderground v.1.15,2013-04-17 16:20:00,
2013-04-17 11:22:00,35.1,24.9,30.41,ENE,70,8.0,10.0,66,0.00,,,0.00,0,Wunderground v.1.15,2013-04-17 16:22:00,
2013-04-17 11:25:00,35.0,24.8,30.41,ENE,57,5.0,13.0,66,0.00,,,0.00,0,Wunderground v.1.15,2013-04-17 16:25:00,
2013-04-17 11:27:00,35.1,24.9,30.41,NE,54,7.0,13.0,66,0.00,,,0.00,0,Wunderground v.1.15,2013-04-17 16:27:00,
2013-04-17 11:30:00,35.1,24.9,30.40,NE,55,5.0,5.0,66,0.00,,,0.00,0,Wunderground v.1.15,2013-04-17 16:30:00,
2013-04-17 11:32:00,35.1,24.9,30.40,NE,55,5.0,7.0,66,0.00,,,0.00,0,Wunderground v.1.15,2013-04-17 16:32:00,
2013-04-17 11:36:00,35.1,25.2,30.38,ENE,68,6.0,12.0,67,0.00,,,0.00,0,Wunderground v.1.15,2013-04-17 16:36:00,
2013-04-17 11:37:00,35.0,25.1,30.39,ENE,61,4.0,12.0,67,0.00,,,0.00,0,Wunderground v.1.15,2013-04-17 16:37:00,
2013-04-17 11:38:00,35.0,25.1,30.38,ENE,61,5.0,12.0,67,0.00,,,0.00,0,Wunderground v.1.15,2013-04-17 16:38:00,
2013-04-17 11:42:00,35.0,25.1,30.39,ENE,62,5.0,8.0,67,0.00,,,0.00,0,Wunderground v.1.15,2013-04-17 16:42:00,
2013-04-17 11:43:00,35.1,25.2,30.38,ENE,61,6.0,8.0,67,0.00,,,0.00,0,Wunderground v.1.15,2013-04-17 16:43:00,
2013-04-17 11:47:00,35.1,25.2,30.39,ENE,61,5.0,8.0,67,0.00,,,0.00,0,Wunderground v.1.15,2013-04-17 16:47:00,
2013-04-17 11:48:00,35.1,25.2,30.38,ENE,61,4.0,8.0,67,0.00,,,0.00,0,Wunderground v.1.15,2013-04-17 16:48:00,
2013-04-17 11:52:00,35.1,25.2,30.38,ENE,61,8.0,8.0,67,0.00,,,0.00,0,Wunderground v.1.15,2013-04-17 16:52:00,
2013-04-17 11:53:00,35.1,25.2,30.38,ENE,57,5.0,10.0,67,0.00,,,0.00,0,Wunderground v.1.15,2013-04-17 16:53:00,
2013-04-17 11:54:00,35.0,25.1,30.36,ENE,58,2.0,10.0,67,0.00,,,0.00,0,Wunderground v.1.15,2013-04-17 16:54:00,
2013-04-17 11:57:00,34.9,25.4,30.36,NE,56,6.0,10.0,68,0.00,,,0.00,0,Wunderground v.1.15,2013-04-17 16:57:00,
2013-04-17 11:58:00,34.9,25.4,30.36,NE,56,6.0,10.0,68,0.00,,,0.00,0,Wunderground v.1.15,2013-04-17 16:58:00,
2013-04-17 11:59:00,34.8,25.3,30.36,NE,56,0.0,10.0,68,0.00,,,0.00,0,Wunderground v.1.15,2013-04-17 16:59:00,
2013-04-17 12:02:00,34.8,25.7,30.36,NE,56,4.0,5.0,69,0.00,,,0.00,0,Wunderground v.1.15,2013-04-17 17:02:00,
2013-04-17 12:03:00,34.8,25.7,30.36,ENE,58,6.0,7.0,69,0.00,,,0.00,0,Wunderground v.1.15,2013-04-17 17:03:00,
2013-04-17 12:04:00,34.8,25.7,30.36,NE,54,4.0,7.0,69,0.00,,,0.00,0,Wunderground v.1.15,2013-04-17 17:04:00,
2013-04-17 12:05:00,34.7,25.6,30.35,NE,54,5.0,7.0,69,0.00,,,0.00,0,Wunderground v.1.15,2013-04-17 17:05:00,
2013-04-17 12:08:00,34.7,25.6,30.35,NE,56,0.0,11.0,69,0.00,,,0.00,0,Wunderground v.1.15,2013-04-17 17:08:00,
2013-04-17 12:09:00,34.7,25.9,30.35,NE,56,3.0,11.0,70,0.00,,,0.00,0,Wunderground v.1.15,2013-04-17 17:09:00,
2013-04-17 12:11:00,34.7,25.9,30.35,ENE,61,7.0,9.0,70,0.00,,,0.00,0,Wunderground v.1.15,2013-04-17 17:11:00,
2013-04-17 12:13:00,34.7,25.9,30.35,NE,55,7.0,9.0,70,0.00,,,0.00,0,Wunderground v.1.15,2013-04-17 17:13:00,
2013-04-17 12:14:00,34.7,25.9,30.35,ENE,66,8.0,11.0,70,0.00,,,0.00,0,Wunderground v.1.15,2013-04-17 17:14:00,
2013-04-17 12:16:00,34.7,25.9,30.34,ENE,64,2.0,11.0,70,0.00,,,0.00,0,Wunderground v.1.15,2013-04-17 17:16:00,
2013-04-17 12:18:00,34.7,25.9,30.34,ENE,62,2.0,11.0,70,0.00,,,0.00,0,Wunderground v.1.15,2013-04-17 17:18:00,
2013-04-17 12:19:00,34.7,26.3,30.34,ENE,61,7.0,11.0,71,0.00,,,0.00,0,Wunderground v.1.15,2013-04-17 17:19:00,
2013-04-17 12:21:00,34.7,26.3,30.34,ENE,60,4.0,6.0,71,0.00,,,0.00,0,Wunderground v.1.15,2013-04-17 17:21:00,
2013-04-17 12:23:00,34.7,26.3,30.33,ENE,61,5.0,8.0,71,0.00,,,0.00,0,Wunderground v.1.15,2013-04-17 17:23:00,
2013-04-17 12:24:00,34.7,26.3,30.33,ENE,61,5.0,8.0,71,0.00,,,0.00,0,Wunderground v.1.15,2013-04-17 17:24:00,
2013-04-17 12:26:00,34.8,26.4,30.33,ENE,58,4.0,8.0,71,0.00,,,0.00,0,Wunderground v.1.15,2013-04-17 17:26:00,
2013-04-17 12:28:00,34.8,26.4,30.33,ENE,59,5.0,8.0,71,0.00,,,0.00,0,Wunderground v.1.15,2013-04-17 17:28:00,
2013-04-17 12:29:00,34.8,26.4,30.33,ENE,59,4.0,8.0,71,0.00,,,0.00,0,Wunderground v.1.15,2013-04-17 17:29:00,
2013-04-17 12:32:00,34.9,26.4,30.32,NE,55,6.0,11.0,71,0.00,,,0.00,0,Wunderground v.1.15,2013-04-17 17:32:00,
2013-04-17 12:33:00,34.9,26.4,30.33,NE,55,0.0,11.0,71,0.00,,,0.00,0,Wunderground v.1.15,2013-04-17 17:33:00,
2013-04-17 12:34:00,34.9,26.4,30.33,ENE,59,6.0,11.0,71,0.00,,,0.00,0,Wunderground v.1.15,2013-04-17 17:34:00,
2013-04-17 12:35:00,34.9,26.4,30.33,ENE,60,11.0,11.0,71,0.00,,,0.00,0,Wunderground v.1.15,2013-04-17 17:35:00,
2013-04-17 12:38:00,34.9,26.4,30.33,NE,55,0.0,11.0,71,0.00,,,0.00,0,Wunderground v.1.15,2013-04-17 17:38:00,
2013-04-17 12:39:00,34.9,26.4,30.34,ENE,67,11.0,11.0,71,0.00,,,0.00,0,Wunderground v.1.15,2013-04-17 17:39:00,
2013-04-17 12:40:00,34.9,26.8,30.33,NE,47,8.0,11.0,72,0.00,,,0.00,0,Wunderground v.1.15,2013-04-17 17:40:00,
2013-04-17 12:43:00,34.9,26.8,30.34,NE,48,1.0,9.0,72,0.00,,,0.00,0,Wunderground v.1.15,2013-04-17 17:43:00,
2013-04-17 12:44:00,34.9,26.8,30.34,NE,48,1.0,9.0,72,0.00,,,0.00,0,Wunderground v.1.15,2013-04-17 17:44:00,
2013-04-17 12:45:00,35.0,26.9,30.34,NE,48,2.0,9.0,72,0.00,,,0.00,0,Wunderground v.1.15,2013-04-17 17:45:00,
2013-04-17 12:48:00,34.9,26.8,30.33,ENE,60,2.0,10.0,72,0.00,,,0.00,0,Wunderground v.1.15,2013-04-17 17:48:00,
2013-04-17 12:50:00,35.0,27.2,30.33,NE,53,9.0,10.0,73,0.00,,,0.00,0,Wunderground v.1.15,2013-04-17 17:50:00,
2013-04-17 12:53:00,35.0,27.2,30.33,NE,47,1.0,6.0,73,0.00,,,0.00,0,Wunderground v.1.15,2013-04-17 17:53:00,
2013-04-17 12:55:00,35.1,27.3,30.33,NE,52,2.0,8.0,73,0.00,,,0.00,0,Wunderground v.1.15,2013-04-17 17:55:00,
2013-04-17 12:56:00,35.1,27.3,30.32,ENE,60,4.0,9.0,73,0.00,,,0.00,0,Wunderground v.1.15,2013-04-17 17:56:00,
2013-04-17 12:58:00,35.3,27.8,30.32,ENE,60,8.0,9.0,74,0.00,,,0.00,0,Wunderground v.1.15,2013-04-17 17:58:00,
2013-04-17 13:00:00,35.4,27.9,30.31,ENE,60,4.0,4.0,74,0.00,,,0.00,0,Wunderground v.1.15,2013-04-17 18:00:00,
2013-04-17 13:01:00,35.4,27.9,30.31,ENE,59,3.0,5.0,74,0.00,,,0.00,0,Wunderground v.1.15,2013-04-17 18:01:00,
2013-04-17 13:02:00,35.4,27.9,30.31,ENE,63,5.0,7.0,74,0.00,,,0.00,0,Wunderground v.1.15,2013-04-17 18:02:00,
2013-04-17 13:03:00,35.5,28.0,30.31,ENE,63,3.0,7.0,74,0.00,,,0.00,0,Wunderground v.1.15,2013-04-17 18:03:00,
2013-04-17 13:05:00,35.6,28.5,30.31,NE,46,8.0,9.0,75,0.00,,,0.00,0,Wunderground v.1.15,2013-04-17 18:05:00,
2013-04-17 13:07:00,35.7,28.2,30.31,ENE,57,8.0,9.0,74,0.00,,,0.00,0,Wunderground v.1.15,2013-04-17 18:07:00,
2013-04-17 13:08:00,35.8,28.3,30.31,NE,55,6.0,9.0,74,0.00,,,0.00,0,Wunderground v.1.15,2013-04-17 18:08:00,
2013-04-17 13:09:00,35.8,28.3,30.31,NE,52,5.0,9.0,74,0.00,,,0.00,0,Wunderground v.1.15,2013-04-17 18:09:00,
2013-04-17 13:11:00,35.9,28.4,30.31,NE,52,3.0,5.0,74,0.00,,,0.00,0,Wunderground v.1.15,2013-04-17 18:11:00,
2013-04-17 13:12:00,36.0,28.5,30.31,ENE,58,7.0,7.0,74,0.00,,,0.00,0,Wunderground v.1.15,2013-04-17 18:12:00,
2013-04-17 13:13:00,36.1,28.6,30.31,NE,56,9.0,10.0,74,0.00,,,0.00,0,Wunderground v.1.15,2013-04-17 18:13:00,
2013-04-17 13:14:00,36.1,28.6,30.31,ENE,57,5.0,10.0,74,0.00,,,0.00,0,Wunderground v.1.15,2013-04-17 18:14:00,
2013-04-17 13:17:00,36.2,28.4,30.30,NE,54,7.0,13.0,73,0.00,,,0.00,0,Wunderground v.1.15,2013-04-17 18:17:00,
2013-04-17 13:18:00,36.3,28.5,30.30,NE,47,8.0,13.0,73,0.00,,,0.00,0,Wunderground v.1.15,2013-04-17 18:18:00,
2013-04-17 13:20:00,36.3,28.5,30.31,NE,48,7.0,13.0,73,0.00,,,0.00,0,Wunderground v.1.15,2013-04-17 18:20:00,
2013-04-17 13:22:00,36.3,28.5,30.31,NE,56,8.0,13.0,73,0.00,,,0.00,0,Wunderground v.1.15,2013-04-17 18:22:00,
2013-04-17 13:24:00,36.3,28.1,30.30,ENE,69,8.0,17.0,72,0.00,,,0.00,0,Wunderground v.1.15,2013-04-17 18:24:00,
2013-04-17 13:25:00,36.3,28.1,30.31,ENE,62,8.0,17.0,72,0.00,,,0.00,0,Wunderground v.1.15,2013-04-17 18:25:00,
2013-04-17 13:27:00,36.4,28.2,30.30,NE,43,5.0,17.0,72,0.00,,,0.00,0,Wunderground v.1.15,2013-04-17 18:27:00,
2013-04-17 13:28:00,36.4,28.2,30.31,ENE,61,3.0,17.0,72,0.00,,,0.00,0,Wunderground v.1.15,2013-04-17 18:28:00,
2013-04-17 13:29:00,36.5,28.3,30.30,ENE,61,2.0,17.0,72,0.00,,,0.00,0,Wunderground v.1.15,2013-04-17 18:29:00,
2013-04-17 13:30:00,36.6,28.4,30.30,NE,46,6.0,17.0,72,0.00,,,0.00,0,Wunderground v.1.15,2013-04-17 18:30:00,
2013-04-17 13:32:00,36.6,28.1,30.30,ENE,62,4.0,8.0,71,0.00,,,0.00,0,Wunderground v.1.15,2013-04-17 18:32:00,
2013-04-17 13:34:00,36.6,28.1,30.31,ENE,64,8.0,13.0,71,0.00,,,0.00,0,Wunderground v.1.15,2013-04-17 18:34:00,
2013-04-17 13:35:00,36.6,28.1,30.31,ENE,66,5.0,13.0,71,0.00,,,0.00,0,Wunderground v.1.15,2013-04-17 18:35:00,
2013-04-17 13:37:00,36.5,28.0,30.30,ENE,64,6.0,13.0,71,0.00,,,0.00,0,Wunderground v.1.15,2013-04-17 18:37:00,
2013-04-17 13:38:00,36.5,28.0,30.30,ENE,63,1.0,13.0,71,0.00,,,0.00,0,Wunderground v.1.15,2013-04-17 18:38:00,
2013-04-17 13:39:00,36.6,28.1,30.30,ENE,73,8.0,13.0,71,0.00,,,0.00,0,Wunderground v.1.15,2013-04-17 18:39:00,
2013-04-17 13:40:00,36.7,28.2,30.29,ENE,73,7.0,12.0,71,0.00,,,0.00,0,Wunderground v.1.15,2013-04-17 18:40:00,
2013-04-17 13:42:00,36.7,28.2,30.29,ENE,66,5.0,12.0,71,0.00,,,0.00,0,Wunderground v.1.15,2013-04-17 18:42:00,
2013-04-17 13:43:00,36.7,28.2,30.29,East,86,10.0,12.0,71,0.00,,,0.00,0,Wunderground v.1.15,2013-04-17 18:43:00,
2013-04-17 13:44:00,36.7,28.2,30.29,East,87,5.0,12.0,71,0.00,,,0.00,0,Wunderground v.1.15,2013-04-17 18:44:00,
2013-04-17 13:47:00,36.8,28.3,30.30,ENE,73,4.0,12.0,71,0.00,,,0.00,0,Wunderground v.1.15,2013-04-17 18:47:00,
2013-04-17 13:48:00,36.9,28.4,30.29,ENE,66,8.0,14.0,71,0.00,,,0.00,0,Wunderground v.1.15,2013-04-17 18:48:00,
2013-04-17 13:49:00,36.9,28.4,30.29,ENE,61,6.0,14.0,71,0.00,,,0.00,0,Wunderground v.1.15,2013-04-17 18:49:00,
2013-04-17 13:52:00,36.9,28.4,30.28,ENE,63,3.0,7.0,71,0.00,,,0.00,0,Wunderground v.1.15,2013-04-17 18:52:00,
2013-04-17 13:53:00,36.9,28.0,30.28,ENE,77,9.0,15.0,70,0.00,,,0.00,0,Wunderground v.1.15,2013-04-17 18:53:00,
2013-04-17 13:54:00,36.9,28.0,30.29,ENE,63,11.0,17.0,70,0.00,,,0.00,0,Wunderground v.1.15,2013-04-17 18:54:00,
2013-04-17 13:57:00,36.9,28.0,30.29,NE,42,9.0,17.0,70,0.00,,,0.00,0,Wunderground v.1.15,2013-04-17 18:57:00,
2013-04-17 13:58:00,36.9,28.0,30.28,ENE,70,7.0,17.0,70,0.00,,,0.00,0,Wunderground v.1.15,2013-04-17 18:58:00,
2013-04-17 13:59:00,36.9,28.0,30.28,ENE,59,7.0,17.0,70,0.00,,,0.00,0,Wunderground v.1.15,2013-04-17 18:59:00,
2013-04-17 14:00:00,36.9,28.0,30.28,NE,52,8.0,8.0,70,0.00,,,0.00,0,Wunderground v.1.15,2013-04-17 19:00:00,
2013-04-17 14:02:00,36.9,28.0,30.28,ENE,73,9.0,14.0,70,0.00,,,0.00,0,Wunderground v.1.15,2013-04-17 19:02:00,
2013-04-17 14:03:00,36.9,27.7,30.28,ENE,58,12.0,14.0,69,0.00,,,0.00,0,Wunderground v.1.15,2013-04-17 19:03:00,
2013-04-17 14:04:00,36.9,27.7,30.28,NE,48,12.0,14.0,69,0.00,,,0.00,0,Wunderground v.1.15,2013-04-17 19:04:00,
2013-04-17 14:05:00,36.9,28.0,30.28,NE,42,7.0,14.0,70,0.00,,,0.00,0,Wunderground v.1.15,2013-04-17 19:05:00,
2013-04-17 14:07:00,36.9,27.7,30.27,ENE,73,8.0,14.0,69,0.00,,,0.00,0,Wunderground v.1.15,2013-04-17 19:07:00,
2013-04-17 14:09:00,37.0,28.1,30.27,ENE,69,6.0,14.0,70,0.00,,,0.00,0,Wunderground v.1.15,2013-04-17 19:09:00,
2013-04-17 14:10:00,37.1,28.2,30.28,ENE,61,6.0,8.0,70,0.00,,,0.00,0,Wunderground v.1.15,2013-04-17 19:10:00,
2013-04-17 14:12:00,37.1,27.9,30.29,ENE,59,3.0,13.0,69,0.00,,,0.00,0,Wunderground v.1.15,2013-04-17 19:12:00,
2013-04-17 14:14:00,37.2,28.3,30.28,ENE,61,7.0,13.0,70,0.00,,,0.00,0,Wunderground v.1.15,2013-04-17 19:14:00,
2013-04-17 14:15:00,37.2,28.3,30.28,NE,55,5.0,13.0,70,0.00,,,0.00,0,Wunderground v.1.15,2013-04-17 19:15:00,
2013-04-17 14:16:00,37.2,28.3,30.28,ENE,61,12.0,15.0,70,0.00,,,0.00,0,Wunderground v.1.15,2013-04-17 19:16:00,
2013-04-17 14:17:00,37.2,28.0,30.28,ENE,70,10.0,19.0,69,0.00,,,0.00,0,Wunderground v.1.15,2013-04-17 19:17:00,
2013-04-17 14:19:00,37.2,28.0,30.28,ENE,76,10.0,19.0,69,0.00,,,0.00,0,Wunderground v.1.15,2013-04-17 19:19:00,
2013-04-17 14:20:00,37.2,28.0,30.28,ENE,76,6.0,19.0,69,0.00,,,0.00,0,Wunderground v.1.15,2013-04-17 19:20:00,
2013-04-17 14:21:00,37.2,28.0,30.28,ENE,62,16.0,16.0,69,0.00,,,0.00,0,Wunderground v.1.15,2013-04-17 19:21:00,
2013-04-17 14:22:00,37.1,27.5,30.28,ENE,67,6.0,16.0,68,0.00,,,0.00,0,Wunderground v.1.15,2013-04-17 19:22:00,
2013-04-17 14:25:00,37.1,27.9,30.28,ENE,66,9.0,16.0,69,0.00,,,0.00,0,Wunderground v.1.15,2013-04-17 19:25:00,
2013-04-17 14:26:00,37.1,27.9,30.28,NE,56,11.0,16.0,69,0.00,,,0.00,0,Wunderground v.1.15,2013-04-17 19:26:00,
2013-04-17 14:27:00,37.1,27.5,30.28,East,81,9.0,16.0,68,0.00,,,0.00,0,Wunderground v.1.15,2013-04-17 19:27:00,
2013-04-17 14:28:00,37.1,27.5,30.27,ENE,74,5.0,16.0,68,0.00,,,0.00,0,Wunderground v.1.15,2013-04-17 19:28:00,
2013-04-17 14:30:00,37.2,27.6,30.27,ENE,61,8.0,16.0,68,0.00,,,0.00,0,Wunderground v.1.15,2013-04-17 19:30:00,
2013-04-17 14:31:00,37.2,27.6,30.28,ENE,72,9.0,10.0,68,0.00,,,0.00,0,Wunderground v.1.15,2013-04-17 19:31:00,
2013-04-17 14:32:00,37.2,27.6,30.28,ENE,74,7.0,10.0,68,0.00,,,0.00,0,Wunderground v.1.15,2013-04-17 19:32:00,
2013-04-17 14:33:00,37.2,27.6,30.27,ENE,67,4.0,10.0,68,0.00,,,0.00,0,Wunderground v.1.15,2013-04-17 19:33:00,
2013-04-17 14:35:00,37.3,27.7,30.28,NE,46,5.0,13.0,68,0.00,,,0.00,0,Wunderground v.1.15,2013-04-17 19:35:00,
2013-04-17 14:36:00,37.3,27.7,30.28,NE,47,3.0,13.0,68,0.00,,,0.00,0,Wunderground v.1.15,2013-04-17 19:36:00,
2013-04-17 14:37:00,37.3,27.7,30.28,ENE,58,5.0,13.0,68,0.00,,,0.00,0,Wunderground v.1.15,2013-04-17 19:37:00,
2013-04-17 14:38:00,37.4,27.8,30.28,ENE,66,7.0,13.0,68,0.00,,,0.00,0,Wunderground v.1.15,2013-04-17 19:38:00,
2013-04-17 14:40:00,37.3,27.7,30.28,NE,51,9.0,13.0,68,0.00,,,0.00,0,Wunderground v.1.15,2013-04-17 19:40:00,
2013-04-17 14:41:00,37.3,27.7,30.28,ENE,73,6.0,9.0,68,0.00,,,0.00,0,Wunderground v.1.15,2013-04-17 19:41:00,
2013-04-17 14:42:00,37.3,27.7,30.28,ENE,60,10.0,10.0,68,0.00,,,0.00,0,Wunderground v.1.15,2013-04-17 19:42:00,
2013-04-17 14:43:00,37.4,27.8,30.29,NE,50,9.0,10.0,68,0.00,,,0.00,0,Wunderground v.1.15,2013-04-17 19:43:00,
2013-04-17 14:44:00,37.3,27.7,30.28,NE,53,5.0,10.0,68,0.00,,,0.00,0,Wunderground v.1.15,2013-04-17 19:44:00,
2013-04-17 14:45:00,37.4,27.8,30.28,NE,53,3.0,10.0,68,0.00,,,0.00,0,Wunderground v.1.15,2013-04-17 19:45:00,
2013-04-17 14:46:00,37.4,27.8,30.28,NE,55,5.0,10.0,68,0.00,,,0.00,0,Wunderground v.1.15,2013-04-17 19:46:00,
2013-04-17 14:47:00,37.4,27.8,30.28,East,86,8.0,10.0,68,0.00,,,0.00,0,Wunderground v.1.15,2013-04-17 19:47:00,
2013-04-17 14:48:00,37.4,27.8,30.27,NE,56,4.0,10.0,68,0.00,,,0.00,0,Wunderground v.1.15,2013-04-17 19:48:00,
2013-04-17 14:49:00,37.4,27.8,30.28,ENE,74,7.0,10.0,68,0.00,,,0.00,0,Wunderground v.1.15,2013-04-17 19:49:00,
2013-04-17 14:50:00,37.4,27.8,30.27,ENE,71,5.0,5.0,68,0.00,,,0.00,0,Wunderground v.1.15,2013-04-17 19:50:00,
2013-04-17 14:52:00,37.4,27.8,30.27,NE,54,4.0,7.0,68,0.00,,,0.00,0,Wunderground v.1.15,2013-04-17 19:52:00,
2013-04-17 14:53:00,37.5,27.9,30.27,NE,56,4.0,7.0,68,0.00,,,0.00,0,Wunderground v.1.15,2013-04-17 19:53:00,
2013-04-17 14:54:00,37.5,27.9,30.27,ENE,70,6.0,16.0,68,0.00,,,0.00,0,Wunderground v.1.15,2013-04-17 19:54:00,
2013-04-17 14:55:00,37.5,27.9,30.27,ENE,59,11.0,16.0,68,0.00,,,0.00,0,Wunderground v.1.15,2013-04-17 19:55:00,
2013-04-17 14:57:00,37.4,27.8,30.26,ENE,64,12.0,16.0,68,0.00,,,0.00,0,Wunderground v.1.15,2013-04-17 19:57:00,
2013-04-17 14:58:00,37.3,27.7,30.27,NE,55,8.0,16.0,68,0.00,,,0.00,0,Wunderground v.1.15,2013-04-17 19:58:00,
2013-04-17 14:59:00,37.3,27.7,30.27,ENE,61,5.0,16.0,68,0.00,,,0.00,0,Wunderground v.1.15,2013-04-17 19:59:00,
2013-04-17 15:01:00,37.3,27.7,30.26,ENE,63,5.0,10.0,68,0.00,,,0.00,0,Wunderground v.1.15,2013-04-17 20:01:00,
2013-04-17 15:02:00,37.4,27.8,30.27,ENE,61,6.0,10.0,68,0.00,,,0.00,0,Wunderground v.1.15,2013-04-17 20:02:00,
2013-04-17 15:03:00,37.4,27.8,30.27,ENE,59,3.0,10.0,68,0.00,,,0.00,0,Wunderground v.1.15,2013-04-17 20:03:00,
2013-04-17 15:04:00,37.5,28.2,30.27,ENE,59,6.0,10.0,69,0.00,,,0.00,0,Wunderground v.1.15,2013-04-17 20:04:00,
2013-04-17 15:06:00,37.5,28.2,30.27,ENE,67,7.0,10.0,69,0.00,,,0.00,0,Wunderground v.1.15,2013-04-17 20:06:00,
2013-04-17 15:07:00,37.5,27.9,30.27,ENE,65,6.0,10.0,68,0.00,,,0.00,0,Wunderground v.1.15,2013-04-17 20:07:00,
2013-04-17 15:08:00,37.5,27.9,30.27,East,82,7.0,10.0,68,0.00,,,0.00,0,Wunderground v.1.15,2013-04-17 20:08:00,
2013-04-17 15:09:00,37.5,27.9,30.27,ENE,63,9.0,12.0,68,0.00,,,0.00,0,Wunderground v.1.15,2013-04-17 20:09:00,
2013-04-17 15:11:00,37.5,27.9,30.27,ENE,59,7.0,9.0,68,0.00,,,0.00,0,Wunderground v.1.15,2013-04-17 20:11:00,
2013-04-17 15:13:00,37.4,27.8,30.27,ENE,57,3.0,13.0,68,0.00,,,0.00,0,Wunderground v.1.15,2013-04-17 20:13:00,
2013-04-17 15:15:00,37.4,27.8,30.27,ENE,71,8.0,13.0,68,0.00,,,0.00,0,Wunderground v.1.15,2013-04-17 20:15:00,
2013-04-17 15:16:00,37.4,27.8,30.26,ENE,60,6.0,13.0,68,0.00,,,0.00,0,Wunderground v.1.15,2013-04-17 20:16:00,
2013-04-17 15:18:00,37.4,27.8,30.26,ENE,57,9.0,13.0,68,0.00,,,0.00,0,Wunderground v.1.15,2013-04-17 20:18:00,
2013-04-17 15:19:00,37.4,27.8,30.26,NE,53,3.0,13.0,68,0.00,,,0.00,0,Wunderground v.1.15,2013-04-17 20:19:00,
2013-04-17 15:20:00,37.4,27.8,30.26,NE,55,8.0,13.0,68,0.00,,,0.00,0,Wunderground v.1.15,2013-04-17 20:20:00,
2013-04-17 15:22:00,37.4,27.8,30.27,ENE,60,5.0,9.0,68,0.00,,,0.00,0,Wunderground v.1.15,2013-04-17 20:22:00,
2013-04-17 15:23:00,37.4,27.8,30.26,ENE,76,9.0,11.0,68,0.00,,,0.00,0,Wunderground v.1.15,2013-04-17 20:23:00,
2013-04-17 15:24:00,37.4,27.8,30.26,ENE,73,10.0,11.0,68,0.00,,,0.00,0,Wunderground v.1.15,2013-04-17 20:24:00,
2013-04-17 15:25:00,37.4,27.8,30.26,ENE,63,8.0,11.0,68,0.00,,,0.00,0,Wunderground v.1.15,2013-04-17 20:25:00,
2013-04-17 15:27:00,37.5,27.9,30.26,NNE,30,4.0,11.0,68,0.00,,,0.00,0,Wunderground v.1.15,2013-04-17 20:27:00,
2013-04-17 15:29:00,37.5,27.9,30.25,NE,56,6.0,11.0,68,0.00,,,0.00,0,Wunderground v.1.15,2013-04-17 20:29:00,
2013-04-17 15:30:00,37.5,27.9,30.25,ENE,73,11.0,12.0,68,0.00,,,0.00,0,Wunderground v.1.15,2013-04-17 20:30:00,
2013-04-17 15:32:00,37.5,27.9,30.25,ENE,61,8.0,12.0,68,0.00,,,0.00,0,Wunderground v.1.15,2013-04-17 20:32:00,
2013-04-17 15:34:00,37.5,27.9,30.25,ENE,66,8.0,12.0,68,0.00,,,0.00,0,Wunderground v.1.15,2013-04-17 20:34:00,
2013-04-17 15:35:00,37.5,27.9,30.25,NE,46,5.0,12.0,68,0.00,,,0.00,0,Wunderground v.1.15,2013-04-17 20:35:00,
2013-04-17 15:37:00,37.5,27.9,30.24,ENE,72,5.0,12.0,68,0.00,,,0.00,0,Wunderground v.1.15,2013-04-17 20:37:00,
2013-04-17 15:39:00,37.5,27.9,30.24,ENE,71,6.0,12.0,68,0.00,,,0.00,0,Wunderground v.1.15,2013-04-17 20:39:00,
2013-04-17 15:40:00,37.6,28.0,30.24,NE,46,7.0,7.0,68,0.00,,,0.00,0,Wunderground v.1.15,2013-04-17 20:40:00,
2013-04-17 15:42:00,37.6,28.0,30.24,ENE,72,15.0,15.0,68,0.00,,,0.00,0,Wunderground v.1.15,2013-04-17 20:42:00,
2013-04-17 15:44:00,37.5,27.9,30.23,ENE,68,8.0,16.0,68,0.00,,,0.00,0,Wunderground v.1.15,2013-04-17 20:44:00,
2013-04-17 15:45:00,37.5,27.9,30.23,ENE,64,6.0,16.0,68,0.00,,,0.00,0,Wunderground v.1.15,2013-04-17 20:45:00,
2013-04-17 15:47:00,37.4,28.2,30.25,ENE,63,6.0,16.0,69,0.00,,,0.00,0,Wunderground v.1.15,2013-04-17 20:47:00,
2013-04-17 15:49:00,37.3,28.1,30.25,ENE,65,5.0,16.0,69,0.00,,,0.00,0,Wunderground v.1.15,2013-04-17 20:49:00,
2013-04-17 15:50:00,37.3,28.1,30.24,NE,53,7.0,16.0,69,0.00,,,0.00,0,Wunderground v.1.15,2013-04-17 20:50:00,
2013-04-17 15:53:00,37.3,28.4,30.25,NE,38,3.0,5.0,70,0.00,,,0.00,0,Wunderground v.1.15,2013-04-17 20:53:00,
2013-04-17 15:54:00,37.3,28.4,30.25,NE,39,5.0,6.0,70,0.00,,,0.00,0,Wunderground v.1.15,2013-04-17 20:54:00,
2013-04-17 15:55:00,37.3,28.4,30.25,NE,39,1.0,6.0,70,0.00,,,0.00,0,Wunderground v.1.15,2013-04-17 20:55:00,
2013-04-17 15:58:00,37.2,28.3,30.24,ENE,59,7.0,11.0,70,0.00,,,0.00,0,Wunderground v.1.15,2013-04-17 20:58:00,
2013-04-17 16:00:00,37.1,28.2,30.24,ENE,62,5.0,11.0,70,0.00,,,0.00,0,Wunderground v.1.15,2013-04-17 21:00:00,
2013-04-17 16:01:00,37.1,28.2,30.25,ENE,64,3.0,6.0,70,0.00,,,0.00,0,Wunderground v.1.15,2013-04-17 21:01:00,
2013-04-17 16:03:00,37.1,28.2,30.25,ENE,64,7.0,9.0,70,0.00,,,0.00,0,Wunderground v.1.15,2013-04-17 21:03:00,
2013-04-17 16:05:00,37.0,28.1,30.24,East,83,8.0,11.0,70,0.00,,,0.00,0,Wunderground v.1.15,2013-04-17 21:05:00,
2013-04-17 16:06:00,37.0,28.1,30.25,ENE,62,12.0,12.0,70,0.00,,,0.00,0,Wunderground v.1.15,2013-04-17 21:06:00,
2013-04-17 16:09:00,37.0,28.1,30.24,NE,51,5.0,14.0,70,0.00,,,0.00,0,Wunderground v.1.15,2013-04-17 21:09:00,
2013-04-17 16:10:00,37.0,28.1,30.24,NE,51,6.0,14.0,70,0.00,,,0.00,0,Wunderground v.1.15,2013-04-17 21:10:00,
2013-04-17 16:11:00,37.0,28.1,30.24,ENE,61,6.0,9.0,70,0.00,,,0.00,0,Wunderground v.1.15,2013-04-17 21:11:00,
2013-04-17 16:13:00,37.0,28.1,30.24,ENE,66,4.0,9.0,70,0.00,,,0.00,0,Wunderground v.1.15,2013-04-17 21:13:00,
2013-04-17 16:14:00,37.0,28.1,30.24,ENE,70,7.0,9.0,70,0.00,,,0.00,0,Wunderground v.1.15,2013-04-17 21:14:00,
2013-04-17 16:15:00,37.0,28.5,30.24,ENE,69,2.0,10.0,71,0.00,,,0.00,0,Wunderground v.1.15,2013-04-17 21:15:00,
2013-04-17 16:16:00,37.0,28.1,30.25,ENE,69,2.0,10.0,70,0.00,,,0.00,0,Wunderground v.1.15,2013-04-17 21:16:00,
2013-04-17 16:18:00,37.0,28.1,30.24,ENE,70,3.0,11.0,70,0.00,,,0.00,0,Wunderground v.1.15,2013-04-17 21:18:00,
2013-04-17 16:19:00,37.0,28.1,30.24,ENE,68,4.0,11.0,70,0.00,,,0.00,0,Wunderground v.1.15,2013-04-17 21:19:00,
2013-04-17 16:20:00,37.0,28.1,30.24,NE,56,9.0,9.0,70,0.00,,,0.00,0,Wunderground v.1.15,2013-04-17 21:20:00,
2013-04-17 16:21:00,37.0,28.1,30.25,ENE,69,8.0,11.0,70,0.00,,,0.00,0,Wunderground v.1.15,2013-04-17 21:21:00,
2013-04-17 16:22:00,37.0,28.1,30.25,ENE,68,5.0,11.0,70,0.00,,,0.00,0,Wunderground v.1.15,2013-04-17 21:22:00,
2013-04-17 16:23:00,36.9,28.0,30.24,ENE,73,5.0,11.0,70,0.00,,,0.00,0,Wunderground v.1.15,2013-04-17 21:23:00,
2013-04-17 16:24:00,36.9,28.0,30.25,ENE,72,4.0,11.0,70,0.00,,,0.00,0,Wunderground v.1.15,2013-04-17 21:24:00,
2013-04-17 16:25:00,36.9,28.0,30.24,ENE,72,2.0,11.0,70,0.00,,,0.00,0,Wunderground v.1.15,2013-04-17 21:25:00,
2013-04-17 16:26:00,36.9,28.0,30.24,ENE,68,8.0,11.0,70,0.00,,,0.00,0,Wunderground v.1.15,2013-04-17 21:26:00,
2013-04-17 16:27:00,36.9,28.0,30.24,ENE,77,7.0,11.0,70,0.00,,,0.00,0,Wunderground v.1.15,2013-04-17 21:27:00,
2013-04-17 16:28:00,36.9,28.0,30.24,NNE,30,14.0,16.0,70,0.00,,,0.00,0,Wunderground v.1.15,2013-04-17 21:28:00,
2013-04-17 16:29:00,36.8,28.3,30.23,NE,48,9.0,16.0,71,0.00,,,0.00,0,Wunderground v.1.15,2013-04-17 21:29:00,
2013-04-17 16:30:00,36.8,27.9,30.24,NE,52,6.0,6.0,70,0.00,,,0.00,0,Wunderground v.1.15,2013-04-17 21:30:00,
2013-04-17 16:31:00,36.8,27.9,30.23,NNE,27,8.0,8.0,70,0.00,,,0.00,0,Wunderground v.1.15,2013-04-17 21:31:00,
2013-04-17 16:32:00,36.8,28.3,30.23,NE,47,5.0,8.0,71,0.00,,,0.00,0,Wunderground v.1.15,2013-04-17 21:32:00,
2013-04-17 16:33:00,36.8,28.3,30.24,ENE,63,7.0,14.0,71,0.00,,,0.00,0,Wunderground v.1.15,2013-04-17 21:33:00,
2013-04-17 16:35:00,36.7,28.2,30.23,East,80,6.0,14.0,71,0.00,,,0.00,0,Wunderground v.1.15,2013-04-17 21:35:00,
2013-04-17 16:36:00,36.7,28.2,30.23,ENE,72,8.0,14.0,71,0.00,,,0.00,0,Wunderground v.1.15,2013-04-17 21:36:00,
2013-04-17 16:38:00,36.7,28.2,30.23,NE,50,7.0,15.0,71,0.00,,,0.00,0,Wunderground v.1.15,2013-04-17 21:38:00,
2013-04-17 16:40:00,36.6,28.1,30.23,NNE,31,7.0,7.0,71,0.00,,,0.00,0,Wunderground v.1.15,2013-04-17 21:40:00,
2013-04-17 16:41:00,36.6,28.1,30.23,NE,48,5.0,8.0,71,0.00,,,0.00,0,Wunderground v.1.15,2013-04-17 21:41:00,
2013-04-17 16:42:00,36.6,28.1,30.23,ENE,57,11.0,11.0,71,0.00,,,0.00,0,Wunderground v.1.15,2013-04-17 21:42:00,
2013-04-17 16:43:00,36.6,28.4,30.23,ENE,68,4.0,11.0,72,0.00,,,0.00,0,Wunderground v.1.15,2013-04-17 21:43:00,
2013-04-17 16:45:00,36.5,28.3,30.23,ENE,63,3.0,11.0,72,0.00,,,0.00,0,Wunderground v.1.15,2013-04-17 21:45:00,
2013-04-17 16:46:00,36.5,28.3,30.24,ENE,67,9.0,11.0,72,0.00,,,0.00,0,Wunderground v.1.15,2013-04-17 21:46:00,
2013-04-17 16:47:00,36.5,28.3,30.23,ENE,65,9.0,13.0,72,0.00,,,0.00,0,Wunderground v.1.15,2013-04-17 21:47:00,
2013-04-17 16:48:00,36.5,28.3,30.24,NE,55,7.0,13.0,72,0.00,,,0.00,0,Wunderground v.1.15,2013-04-17 21:48:00,
2013-04-17 16:50:00,36.3,28.5,30.23,NE,51,5.0,7.0,73,0.00,,,0.00,0,Wunderground v.1.15,2013-04-17 21:50:00,
2013-04-17 16:51:00,36.3,28.5,30.23,NE,49,6.0,7.0,73,0.00,,,0.00,0,Wunderground v.1.15,2013-04-17 21:51:00,
2013-04-17 16:52:00,36.2,28.4,30.23,ENE,65,7.0,8.0,73,0.00,,,0.00,0,Wunderground v.1.15,2013-04-17 21:52:00,
2013-04-17 16:53:00,36.2,28.4,30.22,ENE,62,7.0,9.0,73,0.00,,,0.00,0,Wunderground v.1.15,2013-04-17 21:53:00,
2013-04-17 16:55:00,36.0,28.5,30.22,ENE,60,5.0,9.0,74,0.00,,,0.00,0,Wunderground v.1.15,2013-04-17 21:55:00,
2013-04-17 16:56:00,36.0,28.5,30.22,NE,56,9.0,9.0,74,0.00,,,0.00,0,Wunderground v.1.15,2013-04-17 21:56:00,
2013-04-17 16:57:00,35.9,28.7,30.22,ENE,61,8.0,13.0,75,0.00,,,0.00,0,Wunderground v.1.15,2013-04-17 21:57:00,
2013-04-17 16:58:00,35.9,28.7,30.23,ENE,63,7.0,13.0,75,0.00,,,0.00,0,Wunderground v.1.15,2013-04-17 21:58:00,
2013-04-17 17:00:00,35.8,29.0,30.22,NE,56,1.0,7.0,76,0.00,,,0.00,0,Wunderground v.1.15,2013-04-17 22:00:00,
2013-04-17 17:01:00,35.8,29.0,30.21,NE,53,4.0,7.0,76,0.00,,,0.00,0,Wunderground v.1.15,2013-04-17 22:01:00,
2013-04-17 17:02:00,35.7,28.9,30.22,NE,52,6.0,7.0,76,0.00,,,0.00,0,Wunderground v.1.15,2013-04-17 22:02:00,
2013-04-17 17:03:00,35.7,28.9,30.21,NE,54,6.0,7.0,76,0.00,,,0.00,0,Wunderground v.1.15,2013-04-17 22:03:00,
2013-04-17 17:06:00,35.6,29.1,30.21,ENE,66,1.0,10.0,77,0.00,,,0.00,0,Wunderground v.1.15,2013-04-17 22:06:00,
2013-04-17 17:07:00,35.6,29.1,30.21,ENE,67,7.0,10.0,77,0.00,,,0.00,0,Wunderground v.1.15,2013-04-17 22:07:00,
2013-04-17 17:08:00,35.6,29.1,30.22,NE,46,5.0,10.0,77,0.00,,,0.00,0,Wunderground v.1.15,2013-04-17 22:08:00,
2013-04-17 17:09:00,35.6,29.1,30.22,East,82,6.0,10.0,77,0.00,,,0.00,0,Wunderground v.1.15,2013-04-17 22:09:00,
2013-04-17 17:11:00,35.5,29.0,30.22,ENE,67,7.0,7.0,77,0.00,,,0.00,0,Wunderground v.1.15,2013-04-17 22:11:00,
2013-04-17 17:12:00,35.5,29.3,30.22,ENE,67,6.0,7.0,78,0.00,,,0.00,0,Wunderground v.1.15,2013-04-17 22:12:00,
2013-04-17 17:13:00,35.5,29.3,30.22,NE,48,6.0,7.0,78,0.00,,,0.00,0,Wunderground v.1.15,2013-04-17 22:13:00,
2013-04-17 17:14:00,35.5,29.3,30.21,NE,40,3.0,7.0,78,0.00,,,0.00,0,Wunderground v.1.15,2013-04-17 22:14:00,
2013-04-17 17:16:00,35.5,29.3,30.20,ENE,68,12.0,12.0,78,0.00,,,0.00,0,Wunderground v.1.15,2013-04-17 22:16:00,
2013-04-17 17:17:00,35.5,29.6,30.20,NE,51,4.0,12.0,79,0.00,,,0.00,0,Wunderground v.1.15,2013-04-17 22:17:00,
2013-04-17 17:18:00,35.5,29.6,30.20,ENE,62,6.0,12.0,79,0.00,,,0.00,0,Wunderground v.1.15,2013-04-17 22:18:00,
2013-04-17 17:20:00,35.5,29.6,30.19,ENE,58,0.0,12.0,79,0.00,,,0.00,0,Wunderground v.1.15,2013-04-17 22:20:00,
2013-04-17 17:22:00,35.5,29.6,30.19,NE,56,8.0,10.0,79,0.00,,,0.00,0,Wunderground v.1.15,2013-04-17 22:22:00,
2013-04-17 17:23:00,35.5,29.9,30.20,ENE,67,6.0,10.0,80,0.00,,,0.00,0,Wunderground v.1.15,2013-04-17 22:23:00,
2013-04-17 17:25:00,35.5,29.9,30.21,ENE,66,3.0,10.0,80,0.00,,,0.00,0,Wunderground v.1.15,2013-04-17 22:25:00,
2013-04-17 17:27:00,35.5,29.9,30.20,ENE,59,5.0,10.0,80,0.00,,,0.00,0,Wunderground v.1.15,2013-04-17 22:27:00,
2013-04-17 17:28:00,35.5,29.9,30.20,NE,46,3.0,10.0,80,0.00,,,0.00,0,Wunderground v.1.15,2013-04-17 22:28:00,
2013-04-17 17:29:00,35.5,29.9,30.20,NE,44,6.0,10.0,80,0.00,,,0.00,0,Wunderground v.1.15,2013-04-17 22:29:00,
2013-04-17 17:30:00,35.4,29.8,30.20,NE,36,6.0,6.0,80,0.00,,,0.00,0,Wunderground v.1.15,2013-04-17 22:30:00,
2013-04-17 17:32:00,35.4,30.1,30.19,NE,37,0.0,6.0,81,0.00,,,0.00,0,Wunderground v.1.15,2013-04-17 22:32:00,
2013-04-17 17:33:00,35.4,30.1,30.20,NE,37,0.0,6.0,81,0.00,,,0.00,0,Wunderground v.1.15,2013-04-17 22:33:00,
2013-04-17 17:34:00,35.5,30.2,30.19,NE,37,3.0,6.0,81,0.00,,,0.00,0,Wunderground v.1.15,2013-04-17 22:34:00,
2013-04-17 17:35:00,35.5,30.2,30.19,NE,37,2.0,6.0,81,0.00,,,0.00,0,Wunderground v.1.15,2013-04-17 22:35:00,
2013-04-17 17:37:00,35.4,30.1,30.19,ENE,69,0.0,9.0,81,0.00,,,0.00,0,Wunderground v.1.15,2013-04-17 22:37:00,
2013-04-17 17:38:00,35.3,30.1,30.20,ENE,69,1.0,9.0,81,0.00,,,0.00,0,Wunderground v.1.15,2013-04-17 22:38:00,
2013-04-17 17:39:00,35.3,30.1,30.20,ENE,67,0.0,9.0,81,0.00,,,0.00,0,Wunderground v.1.15,2013-04-17 22:39:00,
2013-04-17 17:40:00,35.3,30.1,30.20,NE,41,4.0,5.0,81,0.00,,,0.00,0,Wunderground v.1.15,2013-04-17 22:40:00,
2013-04-17 17:42:00,35.2,30.0,30.19,NE,44,6.0,6.0,81,0.00,,,0.00,0,Wunderground v.1.15,2013-04-17 22:42:00,
2013-04-17 17:44:00,35.2,30.0,30.20,NE,46,0.0,7.0,81,0.00,,,0.00,0,Wunderground v.1.15,2013-04-17 22:44:00,
2013-04-17 17:47:00,35.1,29.9,30.19,NE,36,5.0,10.0,81,0.00,,,0.00,0,Wunderground v.1.15,2013-04-17 22:47:00,
2013-04-17 17:49:00,35.1,30.2,30.19,NE,37,7.0,10.0,82,0.00,,,0.00,0,Wunderground v.1.15,2013-04-17 22:49:00,
2013-04-17 17:50:00,35.1,30.2,30.19,NE,54,7.0,10.0,82,0.00,,,0.00,0,Wunderground v.1.15,2013-04-17 22:50:00,
2013-04-17 17:52:00,35.1,30.2,30.19,NNE,30,6.0,8.0,82,0.00,,,0.00,0,Wunderground v.1.15,2013-04-17 22:52:00,
2013-04-17 17:54:00,35.0,30.1,30.20,NNE,32,2.0,10.0,82,0.00,,,0.00,0,Wunderground v.1.15,2013-04-17 22:54:00,
2013-04-17 17:55:00,35.0,30.1,30.20,NNE,32,0.0,10.0,82,0.00,,,0.00,0,Wunderground v.1.15,2013-04-17 22:55:00,
2013-04-17 17:57:00,35.1,30.5,30.20,ENE,58,7.0,10.0,83,0.00,,,0.00,0,Wunderground v.1.15,2013-04-17 22:57:00,
2013-04-17 17:58:00,35.1,30.5,30.20,NE,39,6.0,10.0,83,0.00,,,0.00,0,Wunderground v.1.15,2013-04-17 22:58:00,
2013-04-17 17:59:00,35.0,30.4,30.20,NE,46,8.0,10.0,83,0.00,,,0.00,0,Wunderground v.1.15,2013-04-17 22:59:00,
2013-04-17 18:00:00,35.0,30.4,30.20,ENE,58,5.0,5.0,83,0.00,,,0.00,0,Wunderground v.1.15,2013-04-17 23:00:00,
2013-04-17 18:02:00,35.0,30.4,30.19,NE,53,0.0,5.0,83,0.00,,,0.00,0,Wunderground v.1.15,2013-04-17 23:02:00,
2013-04-17 18:03:00,35.0,30.4,30.19,NE,53,5.0,5.0,83,0.00,,,0.00,0,Wunderground v.1.15,2013-04-17 23:03:00,
2013-04-17 18:04:00,35.0,30.4,30.19,NE,56,6.0,11.0,83,0.00,,,0.00,0,Wunderground v.1.15,2013-04-17 23:04:00,
2013-04-17 18:05:00,35.0,30.4,30.20,ENE,59,6.0,12.0,83,0.00,,,0.00,0,Wunderground v.1.15,2013-04-17 23:05:00,
2013-04-17 18:06:00,35.0,30.4,30.20,ENE,59,3.0,12.0,83,0.00,,,0.00,0,Wunderground v.1.15,2013-04-17 23:06:00,
2013-04-17 18:07:00,35.0,30.4,30.19,NE,36,4.0,12.0,83,0.00,,,0.00,0,Wunderground v.1.15,2013-04-17 23:07:00,
2013-04-17 18:08:00,35.0,30.4,30.20,NE,48,5.0,12.0,83,0.00,,,0.00,0,Wunderground v.1.15,2013-04-17 23:08:00,
2013-04-17 18:09:00,35.0,30.4,30.19,NE,50,2.0,12.0,83,0.00,,,0.00,0,Wunderground v.1.15,2013-04-17 23:09:00,
2013-04-17 18:11:00,35.0,30.7,30.19,ENE,59,4.0,13.0,84,0.00,,,0.00,0,Wunderground v.1.15,2013-04-17 23:11:00,
2013-04-17 18:12:00,35.0,30.7,30.18,NE,50,6.0,13.0,84,0.00,,,0.00,0,Wunderground v.1.15,2013-04-17 23:12:00,
2013-04-17 18:14:00,35.0,30.7,30.18,NNE,32,5.0,13.0,84,0.00,,,0.00,0,Wunderground v.1.15,2013-04-17 23:14:00,
2013-04-17 18:15:00,35.0,30.7,30.18,NNE,33,3.0,13.0,84,0.00,,,0.00,0,Wunderground v.1.15,2013-04-17 23:15:00,
2013-04-17 18:16:00,34.9,30.6,30.18,NE,56,7.0,13.0,84,0.00,,,0.00,0,Wunderground v.1.15,2013-04-17 23:16:00,
2013-04-17 18:18:00,34.9,30.6,30.18,NE,56,4.0,13.0,84,0.00,,,0.00,0,Wunderground v.1.15,2013-04-17 23:18:00,
2013-04-17 18:19:00,34.9,30.6,30.19,ENE,57,4.0,13.0,84,0.00,,,0.00,0,Wunderground v.1.15,2013-04-17 23:19:00,
2013-04-17 18:20:00,34.9,30.6,30.18,NNE,32,6.0,13.0,84,0.00,,,0.00,0,Wunderground v.1.15,2013-04-17 23:20:00,
2013-04-17 18:21:00,34.9,30.6,30.19,NE,43,4.0,8.0,84,0.00,,,0.00,0,Wunderground v.1.15,2013-04-17 23:21:00,
2013-04-17 18:23:00,34.9,30.6,30.19,NE,47,3.0,10.0,84,0.00,,,0.00,0,Wunderground v.1.15,2013-04-17 23:23:00,
2013-04-17 18:24:00,34.9,30.6,30.19,ENE,63,5.0,10.0,84,0.00,,,0.00,0,Wunderground v.1.15,2013-04-17 23:24:00,
2013-04-17 18:25:00,34.9,30.6,30.19,NE,45,6.0,10.0,84,0.00,,,0.00,0,Wunderground v.1.15,2013-04-17 23:25:00,
2013-04-17 18:26:00,34.9,30.6,30.19,NNE,23,2.0,10.0,84,0.00,,,0.00,0,Wunderground v.1.15,2013-04-17 23:26:00,
2013-04-17 18:27:00,34.9,30.6,30.20,NNE,23,0.0,10.0,84,0.00,,,0.00,0,Wunderground v.1.15,2013-04-17 23:27:00,
2013-04-17 18:28:00,34.9,30.8,30.19,NE,50,4.0,10.0,85,0.00,,,0.00,0,Wunderground v.1.15,2013-04-17 23:28:00,
2013-04-17 18:29:00,34.9,30.6,30.20,NE,50,0.0,10.0,84,0.00,,,0.00,0,Wunderground v.1.15,2013-04-17 23:29:00,
2013-04-17 18:30:00,34.9,30.6,30.20,NE,50,0.0,10.0,84,0.00,,,0.00,0,Wunderground v.1.15,2013-04-17 23:30:00,
2013-04-17 18:32:00,34.9,30.8,30.20,NE,45,7.0,9.0,85,0.00,,,0.00,0,Wunderground v.1.15,2013-04-17 23:32:00,
2013-04-17 18:33:00,34.9,30.8,30.19,NE,46,0.0,9.0,85,0.00,,,0.00,0,Wunderground v.1.15,2013-04-17 23:33:00,
2013-04-17 18:34:00,34.9,30.8,30.19,NE,50,0.0,9.0,85,0.00,,,0.00,0,Wunderground v.1.15,2013-04-17 23:34:00,
2013-04-17 18:35:00,34.9,30.8,30.19,NE,50,4.0,9.0,85,0.00,,,0.00,0,Wunderground v.1.15,2013-04-17 23:35:00,
2013-04-17 18:37:00,34.9,30.8,30.20,NE,50,3.0,9.0,85,0.00,,,0.00,0,Wunderground v.1.15,2013-04-17 23:37:00,
2013-04-17 18:38:00,34.9,30.8,30.20,NE,50,1.0,9.0,85,0.00,,,0.00,0,Wunderground v.1.15,2013-04-17 23:38:00,
2013-04-17 18:40:00,34.9,30.8,30.19,ENE,60,6.0,9.0,85,0.00,,,0.00,0,Wunderground v.1.15,2013-04-17 23:40:00,
2013-04-17 18:42:00,34.9,31.1,30.19,NE,46,5.0,6.0,86,0.00,,,0.00,0,Wunderground v.1.15,2013-04-17 23:42:00,
2013-04-17 18:43:00,34.9,31.1,30.19,NE,43,1.0,6.0,86,0.00,,,0.00,0,Wunderground v.1.15,2013-04-17 23:43:00,
2013-04-17 18:44:00,34.9,31.1,30.19,NE,44,2.0,7.0,86,0.00,,,0.00,0,Wunderground v.1.15,2013-04-17 23:44:00,
2013-04-17 18:45:00,34.9,30.8,30.20,NE,44,0.0,7.0,85,0.00,,,0.00,0,Wunderground v.1.15,2013-04-17 23:45:00,
2013-04-17 18:47:00,34.8,31.0,30.19,NE,44,0.0,7.0,86,0.00,,,0.00,0,Wunderground v.1.15,2013-04-17 23:47:00,
2013-04-17 18:48:00,34.8,31.0,30.19,NE,50,3.0,9.0,86,0.00,,,0.00,0,Wunderground v.1.15,2013-04-17 23:48:00,
2013-04-17 18:49:00,34.9,31.1,30.19,NE,54,5.0,9.0,86,0.00,,,0.00,0,Wunderground v.1.15,2013-04-17 23:49:00,
2013-04-17 18:50:00,34.8,31.0,30.19,NE,48,8.0,11.0,86,0.00,,,0.00,0,Wunderground v.1.15,2013-04-17 23:50:00,
2013-04-17 18:52:00,34.8,31.0,30.18,NE,52,6.0,9.0,86,0.00,,,0.00,0,Wunderground v.1.15,2013-04-17 23:52:00,
2013-04-17 18:53:00,34.8,31.0,30.18,NE,52,1.0,9.0,86,0.00,,,0.00,0,Wunderground v.1.15,2013-04-17 23:53:00,
2013-04-17 18:54:00,34.8,31.0,30.17,NE,49,5.0,9.0,86,0.00,,,0.00,0,Wunderground v.1.15,2013-04-17 23:54:00,
2013-04-17 18:55:00,34.8,31.0,30.18,ENE,68,10.0,11.0,86,0.00,,,0.00,0,Wunderground v.1.15,2013-04-17 23:55:00,
2013-04-17 18:58:00,34.8,31.0,30.17,ENE,64,2.0,11.0,86,0.00,,,0.00,0,Wunderground v.1.15,2013-04-17 23:58:00,
2013-04-17 18:59:00,34.8,31.0,30.17,ENE,63,4.0,11.0,86,0.00,,,0.00,0,Wunderground v.1.15,2013-04-17 23:59:00,
2013-04-17 19:00:00,34.8,31.0,30.17,NE,48,2.0,2.0,86,0.00,,,0.00,0,Wunderground v.1.15,2013-04-18 00:00:00,
2013-04-17 19:01:00,34.8,31.3,30.17,NE,48,0.0,4.0,87,0.00,,,0.00,0,Wunderground v.1.15,2013-04-18 00:01:00,
2013-04-17 19:03:00,34.8,31.3,30.17,NE,48,1.0,8.0,87,0.00,,,0.00,0,Wunderground v.1.15,2013-04-18 00:03:00,
2013-04-17 19:04:00,34.8,31.3,30.16,ENE,62,9.0,11.0,87,0.00,,,0.00,0,Wunderground v.1.15,2013-04-18 00:04:00,
2013-04-17 19:05:00,34.8,31.3,30.16,ENE,68,5.0,11.0,87,0.00,,,0.00,0,Wunderground v.1.15,2013-04-18 00:05:00,
2013-04-17 19:07:00,34.8,31.3,30.17,NE,40,5.0,11.0,87,0.00,,,0.00,0,Wunderground v.1.15,2013-04-18 00:07:00,
2013-04-17 19:08:00,34.7,31.2,30.17,NE,40,4.0,11.0,87,0.00,,,0.00,0,Wunderground v.1.15,2013-04-18 00:08:00,
2013-04-17 19:09:00,34.8,31.3,30.17,NE,42,1.0,11.0,87,0.00,,,0.00,0,Wunderground v.1.15,2013-04-18 00:09:00,
2013-04-17 19:10:00,34.8,31.6,30.16,NE,35,8.0,11.0,88,0.00,,,0.00,0,Wunderground v.1.15,2013-04-18 00:10:00,
2013-04-17 19:11:00,34.8,31.3,30.17,NE,36,5.0,7.0,87,0.00,,,0.00,0,Wunderground v.1.15,2013-04-18 00:11:00,
2013-04-17 19:13:00,34.8,31.6,30.16,NE,56,5.0,11.0,88,0.00,,,0.00,0,Wunderground v.1.15,2013-04-18 00:13:00,
2013-04-17 19:14:00,34.8,31.6,30.16,ENE,57,4.0,11.0,88,0.00,,,0.00,0,Wunderground v.1.15,2013-04-18 00:14:00,
2013-04-17 19:15:00,34.8,31.6,30.16,NE,56,2.0,11.0,88,0.00,,,0.00,0,Wunderground v.1.15,2013-04-18 00:15:00,
2013-04-17 19:16:00,34.8,31.6,30.16,NE,44,5.0,11.0,88,0.00,,,0.00,0,Wunderground v.1.15,2013-04-18 00:16:00,
2013-04-17 19:18:00,34.8,31.6,30.16,ENE,73,9.0,12.0,88,0.00,,,0.00,0,Wunderground v.1.15,2013-04-18 00:18:00,
2013-04-17 19:19:00,34.8,31.6,30.17,ENE,61,3.0,12.0,88,0.00,,,0.00,0,Wunderground v.1.15,2013-04-18 00:19:00,
2013-04-17 19:20:00,34.8,31.6,30.16,NE,43,2.0,2.0,88,0.00,,,0.00,0,Wunderground v.1.15,2013-04-18 00:20:00,
2013-04-17 19:21:00,34.8,31.6,30.16,NE,44,3.0,5.0,88,0.00,,,0.00,0,Wunderground v.1.15,2013-04-18 00:21:00,
2013-04-17 19:23:00,34.8,31.6,30.16,NE,45,1.0,7.0,88,0.00,,,0.00,0,Wunderground v.1.15,2013-04-18 00:23:00,
2013-04-17 19:24:00,34.8,31.6,30.16,ENE,59,5.0,9.0,88,0.00,,,0.00,0,Wunderground v.1.15,2013-04-18 00:24:00,
2013-04-17 19:25:00,34.8,31.9,30.16,NE,47,7.0,10.0,89,0.00,,,0.00,0,Wunderground v.1.15,2013-04-18 00:25:00,
2013-04-17 19:27:00,34.8,31.9,30.16,NE,56,4.0,10.0,89,0.00,,,0.00,0,Wunderground v.1.15,2013-04-18 00:27:00,
2013-04-17 19:28:00,34.8,31.9,30.16,ENE,76,8.0,11.0,89,0.00,,,0.00,0,Wunderground v.1.15,2013-04-18 00:28:00,
2013-04-17 19:29:00,34.8,31.9,30.17,NE,45,5.0,11.0,89,0.00,,,0.00,0,Wunderground v.1.15,2013-04-18 00:29:00,
2013-04-17 19:30:00,34.8,31.9,30.17,NE,50,6.0,8.0,89,0.00,,,0.00,0,Wunderground v.1.15,2013-04-18 00:30:00,
2013-04-17 19:32:00,34.8,31.9,30.17,ENE,65,4.0,10.0,89,0.00,,,0.00,0,Wunderground v.1.15,2013-04-18 00:32:00,
2013-04-17 19:33:00,34.8,31.9,30.17,NE,47,9.0,11.0,89,0.00,,,0.00,0,Wunderground v.1.15,2013-04-18 00:33:00,
2013-04-17 19:34:00,34.8,31.9,30.17,ENE,63,4.0,11.0,89,0.00,,,0.00,0,Wunderground v.1.15,2013-04-18 00:34:00,
2013-04-17 19:35:00,34.9,32.0,30.18,ENE,62,6.0,11.0,89,0.00,,,0.00,0,Wunderground v.1.15,2013-04-18 00:35:00,
2013-04-17 19:38:00,34.9,32.0,30.17,NE,42,3.0,11.0,89,0.00,,,0.00,0,Wunderground v.1.15,2013-04-18 00:38:00,
2013-04-17 19:39:00,34.9,32.3,30.17,NE,43,7.0,11.0,90,0.00,,,0.00,0,Wunderground v.1.15,2013-04-18 00:39:00,
2013-04-17 19:40:00,34.9,32.0,30.18,ENE,58,4.0,11.0,89,0.00,,,0.00,0,Wunderground v.1.15,2013-04-18 00:40:00,
2013-04-17 19:41:00,34.9,32.3,30.18,ENE,58,4.0,5.0,90,0.00,,,0.00,0,Wunderground v.1.15,2013-04-18 00:41:00,
2013-04-17 19:44:00,34.8,32.2,30.18,NE,54,1.0,6.0,90,0.00,,,0.00,0,Wunderground v.1.15,2013-04-18 00:44:00,
2013-04-17 19:45:00,34.9,32.3,30.18,NE,39,9.0,11.0,90,0.00,,,0.00,0,Wunderground v.1.15,2013-04-18 00:45:00,
2013-04-17 19:46:00,34.8,32.2,30.18,NE,42,7.0,11.0,90,0.00,,,0.00,0,Wunderground v.1.15,2013-04-18 00:46:00,
2013-04-17 19:49:00,34.8,32.2,30.17,NE,43,5.0,12.0,90,0.00,,,0.00,0,Wunderground v.1.15,2013-04-18 00:49:00,
2013-04-17 19:52:00,34.8,32.2,30.17,ENE,57,6.0,12.0,90,0.00,,,0.00,0,Wunderground v.1.15,2013-04-18 00:52:00,
2013-04-17 19:54:00,34.8,32.2,30.16,NE,56,3.0,12.0,90,0.00,,,0.00,0,Wunderground v.1.15,2013-04-18 00:54:00,
2013-04-17 19:55:00,34.8,32.2,30.16,ENE,58,7.0,12.0,90,0.00,,,0.00,0,Wunderground v.1.15,2013-04-18 00:55:00,
2013-04-17 19:57:00,34.8,32.2,30.16,NE,54,6.0,13.0,90,0.00,,,0.00,0,Wunderground v.1.15,2013-04-18 00:57:00,
2013-04-17 19:59:00,34.8,32.2,30.17,ENE,66,2.0,13.0,90,0.00,,,0.00,0,Wunderground v.1.15,2013-04-18 00:59:00,
2013-04-17 20:00:00,34.8,32.2,30.17,ENE,57,5.0,6.0,90,0.00,,,0.00,0,Wunderground v.1.15,2013-04-18 01:00:00,
2013-04-17 20:02:00,34.8,32.2,30.17,NE,49,5.0,12.0,90,0.00,,,0.00,0,Wunderground v.1.15,2013-04-18 01:02:00,
2013-04-17 20:03:00,34.8,32.2,30.17,NE,53,7.0,12.0,90,0.00,,,0.00,0,Wunderground v.1.15,2013-04-18 01:03:00,
2013-04-17 20:04:00,34.8,32.2,30.16,ENE,68,7.0,12.0,90,0.00,,,0.00,0,Wunderground v.1.15,2013-04-18 01:04:00,
2013-04-17 20:07:00,34.8,32.2,30.16,NE,43,5.0,13.0,90,0.00,,,0.00,0,Wunderground v.1.15,2013-04-18 01:07:00,
2013-04-17 20:08:00,34.8,32.2,30.17,ENE,77,7.0,14.0,90,0.00,,,0.00,0,Wunderground v.1.15,2013-04-18 01:08:00,
2013-04-17 20:09:00,34.9,32.3,30.17,ENE,69,6.0,14.0,90,0.00,,,0.00,0,Wunderground v.1.15,2013-04-18 01:09:00,
2013-04-17 20:12:00,34.9,32.3,30.17,ENE,57,7.0,13.0,90,0.00,,,0.00,0,Wunderground v.1.15,2013-04-18 01:12:00,
2013-04-17 20:13:00,34.9,32.3,30.18,ENE,65,8.0,13.0,90,0.00,,,0.00,0,Wunderground v.1.15,2013-04-18 01:13:00,
2013-04-17 20:14:00,34.9,32.3,30.18,ENE,59,3.0,13.0,90,0.00,,,0.00,0,Wunderground v.1.15,2013-04-18 01:14:00,
2013-04-17 20:17:00,34.9,32.3,30.18,NE,50,5.0,13.0,90,0.00,,,0.00,0,Wunderground v.1.15,2013-04-18 01:17:00,
2013-04-17 20:18:00,34.9,32.3,30.18,ENE,58,5.0,13.0,90,0.00,,,0.00,0,Wunderground v.1.15,2013-04-18 01:18:00,
2013-04-17 20:19:00,34.9,32.3,30.18,ENE,60,5.0,13.0,90,0.00,,,0.00,0,Wunderground v.1.15,2013-04-18 01:19:00,
2013-04-17 20:20:00,34.9,32.3,30.18,ENE,71,7.0,13.0,90,0.00,,,0.00,0,Wunderground v.1.15,2013-04-18 01:20:00,
2013-04-17 20:22:00,34.9,32.3,30.17,ENE,66,11.0,17.0,90,0.00,,,0.00,0,Wunderground v.1.15,2013-04-18 01:22:00,
2013-04-17 20:23:00,35.0,32.4,30.17,ENE,69,11.0,17.0,90,0.00,,,0.00,0,Wunderground v.1.15,2013-04-18 01:23:00,
2013-04-17 20:24:00,35.0,32.4,30.17,ENE,68,6.0,17.0,90,0.00,,,0.00,0,Wunderground v.1.15,2013-04-18 01:24:00,
2013-04-17 20:25:00,35.0,32.4,30.17,ENE,65,3.0,17.0,90,0.00,,,0.00,0,Wunderground v.1.15,2013-04-18 01:25:00,
2013-04-17 20:27:00,34.9,32.3,30.17,ENE,72,13.0,17.0,90,0.00,,,0.00,0,Wunderground v.1.15,2013-04-18 01:27:00,
2013-04-17 20:28:00,34.9,32.3,30.17,NE,51,5.0,17.0,90,0.00,,,0.00,0,Wunderground v.1.15,2013-04-18 01:28:00,
2013-04-17 20:29:00,34.9,32.3,30.17,NE,52,6.0,17.0,90,0.00,,,0.00,0,Wunderground v.1.15,2013-04-18 01:29:00,
2013-04-17 20:31:00,34.9,32.3,30.17,NNE,33,9.0,10.0,90,0.00,,,0.00,0,Wunderground v.1.15,2013-04-18 01:31:00,
2013-04-17 20:32:00,34.9,32.3,30.18,NE,50,6.0,10.0,90,0.00,,,0.00,0,Wunderground v.1.15,2013-04-18 01:32:00,
2013-04-17 20:33:00,34.9,32.3,30.17,NE,45,7.0,11.0,90,0.00,,,0.00,0,Wunderground v.1.15,2013-04-18 01:33:00,
2013-04-17 20:34:00,34.9,32.0,30.17,ENE,58,5.0,11.0,89,0.00,,,0.00,0,Wunderground v.1.15,2013-04-18 01:34:00,
2013-04-17 20:35:00,34.9,32.3,30.17,ENE,64,10.0,11.0,90,0.00,,,0.00,0,Wunderground v.1.15,2013-04-18 01:35:00,
2013-04-17 20:36:00,34.9,32.3,30.17,ENE,65,3.0,11.0,90,0.00,,,0.00,0,Wunderground v.1.15,2013-04-18 01:36:00,
2013-04-17 20:37:00,34.9,32.3,30.17,ENE,74,7.0,11.0,90,0.00,,,0.00,0,Wunderground v.1.15,2013-04-18 01:37:00,
2013-04-17 20:39:00,34.9,32.3,30.18,NE,47,6.0,11.0,90,0.00,,,0.00,0,Wunderground v.1.15,2013-04-18 01:39:00,
2013-04-17 20:40:00,34.9,32.3,30.18,ENE,65,10.0,12.0,90,0.00,,,0.00,0,Wunderground v.1.15,2013-04-18 01:40:00,
2013-04-17 20:42:00,34.9,32.0,30.19,ENE,72,5.0,9.0,89,0.00,,,0.00,0,Wunderground v.1.15,2013-04-18 01:42:00,
2013-04-17 20:44:00,34.9,32.3,30.19,ENE,71,2.0,9.0,90,0.00,,,0.00,0,Wunderground v.1.15,2013-04-18 01:44:00,
2013-04-17 20:45:00,34.9,32.3,30.20,ENE,65,9.0,12.0,90,0.00,,,0.00,0,Wunderground v.1.15,2013-04-18 01:45:00,
2013-04-17 20:46:00,34.9,32.3,30.19,ENE,65,7.0,12.0,90,0.00,,,0.00,0,Wunderground v.1.15,2013-04-18 01:46:00,
2013-04-17 20:47:00,34.9,32.3,30.20,NE,45,3.0,12.0,90,0.00,,,0.00,0,Wunderground v.1.15,2013-04-18 01:47:00,
2013-04-17 20:49:00,34.9,32.3,30.20,NE,42,5.0,12.0,90,0.00,,,0.00,0,Wunderground v.1.15,2013-04-18 01:49:00,
2013-04-17 20:51:00,34.9,32.3,30.20,NE,42,4.0,4.0,90,0.00,,,0.00,0,Wunderground v.1.15,2013-04-18 01:51:00,
2013-04-17 20:52:00,34.9,32.3,30.19,NE,42,3.0,6.0,90,0.00,,,0.00,0,Wunderground v.1.15,2013-04-18 01:52:00,
2013-04-17 20:54:00,34.8,32.2,30.20,NE,49,8.0,8.0,90,0.00,,,0.00,0,Wunderground v.1.15,2013-04-18 01:54:00,
2013-04-17 20:56:00,34.9,32.3,30.19,ENE,65,5.0,9.0,90,0.00,,,0.00,0,Wunderground v.1.15,2013-04-18 01:56:00,
2013-04-17 20:57:00,34.9,32.3,30.19,NE,55,6.0,9.0,90,0.00,,,0.00,0,Wunderground v.1.15,2013-04-18 01:57:00,
2013-04-17 20:59:00,34.8,32.2,30.19,NE,34,6.0,9.0,90,0.00,,,0.00,0,Wunderground v.1.15,2013-04-18 01:59:00,
2013-04-17 21:02:00,34.8,32.2,30.20,NE,37,3.0,4.0,90,0.00,,,0.00,0,Wunderground v.1.15,2013-04-18 02:02:00,
2013-04-17 21:03:00,34.8,32.2,30.19,NE,53,7.0,8.0,90,0.00,,,0.00,0,Wunderground v.1.15,2013-04-18 02:03:00,
2013-04-17 21:04:00,34.8,32.2,30.20,ENE,58,5.0,8.0,90,0.00,,,0.00,0,Wunderground v.1.15,2013-04-18 02:04:00,
2013-04-17 21:07:00,34.8,32.4,30.20,ENE,59,2.0,8.0,91,0.00,,,0.00,0,Wunderground v.1.15,2013-04-18 02:07:00,
2013-04-17 21:08:00,34.8,32.4,30.20,ENE,59,3.0,8.0,91,0.00,,,0.00,0,Wunderground v.1.15,2013-04-18 02:08:00,
2013-04-17 21:09:00,34.8,32.4,30.21,ENE,59,1.0,8.0,91,0.00,,,0.00,0,Wunderground v.1.15,2013-04-18 02:09:00,
2013-04-17 21:12:00,34.8,32.4,30.21,ENE,58,1.0,8.0,91,0.00,,,0.00,0,Wunderground v.1.15,2013-04-18 02:12:00,
2013-04-17 21:13:00,34.8,32.4,30.20,ENE,58,2.0,8.0,91,0.00,,,0.00,0,Wunderground v.1.15,2013-04-18 02:13:00,
2013-04-17 21:14:00,34.7,32.3,30.20,NE,44,4.0,8.0,91,0.00,,,0.00,0,Wunderground v.1.15,2013-04-18 02:14:00,
2013-04-17 21:15:00,34.8,32.4,30.20,NE,45,4.0,8.0,91,0.00,,,0.00,0,Wunderground v.1.15,2013-04-18 02:15:00,
2013-04-17 21:17:00,34.7,32.3,30.20,NNE,12,2.0,8.0,91,0.00,,,0.00,0,Wunderground v.1.15,2013-04-18 02:17:00,
2013-04-17 21:18:00,34.7,32.3,30.20,NNE,12,4.0,8.0,91,0.00,,,0.00,0,Wunderground v.1.15,2013-04-18 02:18:00,
2013-04-17 21:20:00,34.7,32.3,30.19,NE,41,5.0,10.0,91,0.00,,,0.00,0,Wunderground v.1.15,2013-04-18 02:20:00,
2013-04-17 21:22:00,34.6,32.2,30.19,NE,52,8.0,9.0,91,0.00,,,0.00,0,Wunderground v.1.15,2013-04-18 02:22:00,
2013-04-17 21:23:00,34.6,32.2,30.19,NE,46,8.0,9.0,91,0.00,,,0.00,0,Wunderground v.1.15,2013-04-18 02:23:00,
2013-04-17 21:25:00,34.5,32.1,30.18,NE,41,8.0,9.0,91,0.00,,,0.00,0,Wunderground v.1.15,2013-04-18 02:25:00,
2013-04-17 21:27:00,34.5,32.1,30.17,NE,53,5.0,9.0,91,0.00,,,0.00,0,Wunderground v.1.15,2013-04-18 02:27:00,
2013-04-17 21:28:00,34.5,32.1,30.17,NE,52,6.0,9.0,91,0.00,,,0.00,0,Wunderground v.1.15,2013-04-18 02:28:00,
2013-04-17 21:30:00,34.4,32.0,30.17,NE,52,6.0,6.0,91,0.00,,,0.00,0,Wunderground v.1.15,2013-04-18 02:30:00,
2013-04-17 21:32:00,34.3,31.9,30.17,NE,50,7.0,7.0,91,0.00,,,0.00,0,Wunderground v.1.15,2013-04-18 02:32:00,
2013-04-17 21:33:00,34.3,31.9,30.17,NE,50,5.0,7.0,91,0.00,,,0.00,0,Wunderground v.1.15,2013-04-18 02:33:00,
2013-04-17 21:35:00,34.2,31.8,30.16,NNE,30,5.0,8.0,91,0.00,,,0.00,0,Wunderground v.1.15,2013-04-18 02:35:00,
2013-04-17 21:37:00,34.0,31.6,30.16,NE,46,5.0,10.0,91,0.00,,,0.00,0,Wunderground v.1.15,2013-04-18 02:37:00,
2013-04-17 21:38:00,34.0,31.6,30.16,NNE,26,7.0,10.0,91,0.00,,,0.00,0,Wunderground v.1.15,2013-04-18 02:38:00,
2013-04-17 21:40:00,33.9,31.6,30.15,NNE,31,4.0,5.0,91,0.00,,,0.00,0,Wunderground v.1.15,2013-04-18 02:40:00,
2013-04-17 21:41:00,33.9,31.8,30.15,NNE,32,4.0,7.0,92,0.00,,,0.00,0,Wunderground v.1.15,2013-04-18 02:41:00,
2013-04-17 21:42:00,33.9,31.8,30.15,NE,52,9.0,9.0,92,0.00,,,0.00,0,Wunderground v.1.15,2013-04-18 02:42:00,
2013-04-17 21:44:00,33.9,31.8,30.15,NE,44,6.0,10.0,92,0.00,,,0.00,0,Wunderground v.1.15,2013-04-18 02:44:00,
2013-04-17 21:45:00,33.8,31.7,30.15,NE,40,5.0,10.0,92,0.00,,,0.00,0,Wunderground v.1.15,2013-04-18 02:45:00,
2013-04-17 21:47:00,33.8,31.7,30.14,NE,42,6.0,10.0,92,0.00,,,0.00,0,Wunderground v.1.15,2013-04-18 02:47:00,
2013-04-17 21:48:00,33.8,31.7,30.15,NE,41,4.0,10.0,92,0.00,,,0.00,0,Wunderground v.1.15,2013-04-18 02:48:00,
2013-04-17 21:49:00,33.7,31.6,30.14,NE,47,3.0,10.0,92,0.00,,,0.00,0,Wunderground v.1.15,2013-04-18 02:49:00,
2013-04-17 21:51:00,33.7,31.6,30.14,NE,37,5.0,7.0,92,0.00,,,0.00,0,Wunderground v.1.15,2013-04-18 02:51:00,
2013-04-17 21:53:00,33.7,31.6,30.13,NE,48,5.0,10.0,92,0.00,,,0.00,0,Wunderground v.1.15,2013-04-18 02:53:00,
2013-04-17 21:54:00,33.7,31.9,30.13,NE,48,6.0,11.0,93,0.00,,,0.00,0,Wunderground v.1.15,2013-04-18 02:54:00,
2013-04-17 21:56:00,33.6,31.8,30.13,NE,50,9.0,11.0,93,0.00,,,0.00,0,Wunderground v.1.15,2013-04-18 02:56:00,
2013-04-17 21:58:00,33.6,31.8,30.12,NE,35,4.0,11.0,93,0.00,,,0.00,0,Wunderground v.1.15,2013-04-18 02:58:00,
2013-04-17 21:59:00,33.6,31.8,30.12,NE,41,6.0,11.0,93,0.00,,,0.00,0,Wunderground v.1.15,2013-04-18 02:59:00,
2013-04-17 22:00:00,33.6,31.8,30.12,NE,38,7.0,11.0,93,0.00,,,0.00,0,Wunderground v.1.15,2013-04-18 03:00:00,
2013-04-17 22:01:00,33.5,31.7,30.10,NE,47,7.0,9.0,93,0.00,,,0.00,0,Wunderground v.1.15,2013-04-18 03:01:00,
2013-04-17 22:03:00,33.5,31.7,30.08,NE,56,14.0,14.0,93,0.00,,,0.00,0,Wunderground v.1.15,2013-04-18 03:03:00,
2013-04-17 22:04:00,33.5,31.7,30.08,NE,45,9.0,14.0,93,0.00,,,0.00,0,Wunderground v.1.15,2013-04-18 03:04:00,
2013-04-17 22:05:00,33.5,31.7,30.08,NE,43,4.0,14.0,93,0.00,,,0.00,0,Wunderground v.1.15,2013-04-18 03:05:00,
2013-04-17 22:07:00,33.5,31.7,30.10,NE,53,12.0,14.0,93,0.00,,,0.00,0,Wunderground v.1.15,2013-04-18 03:07:00,
2013-04-17 22:08:00,33.5,32.0,30.10,NE,46,4.0,14.0,94,0.00,,,0.00,0,Wunderground v.1.15,2013-04-18 03:08:00,
2013-04-17 22:09:00,33.5,32.0,30.11,NE,48,8.0,14.0,94,0.00,,,0.00,0,Wunderground v.1.15,2013-04-18 03:09:00,
2013-04-17 22:10:00,33.5,32.0,30.10,NNE,26,4.0,14.0,94,0.00,,,0.00,0,Wunderground v.1.15,2013-04-18 03:10:00,
2013-04-17 22:12:00,33.6,32.1,30.10,ENE,68,8.0,12.0,94,0.00,,,0.00,0,Wunderground v.1.15,2013-04-18 03:12:00,
2013-04-17 22:13:00,33.6,32.1,30.10,ENE,68,7.0,12.0,94,0.00,,,0.00,0,Wunderground v.1.15,2013-04-18 03:13:00,
2013-04-17 22:14:00,33.6,32.1,30.10,ENE,63,10.0,13.0,94,0.00,,,0.00,0,Wunderground v.1.15,2013-04-18 03:14:00,
2013-04-17 22:15:00,33.6,32.1,30.10,ENE,59,4.0,13.0,94,0.00,,,0.00,0,Wunderground v.1.15,2013-04-18 03:15:00,
2013-04-17 22:17:00,33.6,32.1,30.09,NE,36,8.0,13.0,94,0.00,,,0.00,0,Wunderground v.1.15,2013-04-18 03:17:00,
2013-04-17 22:18:00,33.6,32.1,30.09,NE,38,5.0,13.0,94,0.00,,,0.00,0,Wunderground v.1.15,2013-04-18 03:18:00,
2013-04-17 22:19:00,33.6,32.3,30.10,NE,52,5.0,13.0,95,0.00,,,0.00,0,Wunderground v.1.15,2013-04-18 03:19:00,
2013-04-17 22:20:00,33.5,32.2,30.10,NNE,22,3.0,13.0,95,0.00,,,0.00,0,Wunderground v.1.15,2013-04-18 03:20:00,
2013-04-17 22:22:00,33.6,32.3,30.10,NE,44,4.0,6.0,95,0.00,,,0.00,0,Wunderground v.1.15,2013-04-18 03:22:00,
2013-04-17 22:24:00,33.6,32.3,30.10,NE,35,6.0,12.0,95,0.00,,,0.00,0,Wunderground v.1.15,2013-04-18 03:24:00,
2013-04-17 22:25:00,33.6,32.3,30.10,NE,44,2.0,12.0,95,0.00,,,0.00,0,Wunderground v.1.15,2013-04-18 03:25:00,
2013-04-17 22:26:00,33.6,32.3,30.10,North,8,4.0,12.0,95,0.00,,,0.00,0,Wunderground v.1.15,2013-04-18 03:26:00,
2013-04-17 22:28:00,33.6,32.3,30.10,NE,45,3.0,12.0,95,0.00,,,0.00,0,Wunderground v.1.15,2013-04-18 03:28:00,
2013-04-17 22:29:00,33.6,32.3,30.11,NE,39,4.0,12.0,95,0.00,,,0.00,0,Wunderground v.1.15,2013-04-18 03:29:00,
2013-04-17 22:30:00,33.6,32.3,30.10,NNE,31,9.0,12.0,95,0.00,,,0.00,0,Wunderground v.1.15,2013-04-18 03:30:00,
2013-04-17 22:31:00,33.5,32.2,30.10,NNE,31,5.0,8.0,95,0.00,,,0.00,0,Wunderground v.1.15,2013-04-18 03:31:00,
2013-04-17 22:33:00,33.6,32.3,30.09,NNE,32,2.0,8.0,95,0.00,,,0.00,0,Wunderground v.1.15,2013-04-18 03:33:00,
2013-04-17 22:34:00,33.6,32.3,30.09,NE,43,7.0,8.0,95,0.00,,,0.00,0,Wunderground v.1.15,2013-04-18 03:34:00,
2013-04-17 22:35:00,33.6,32.3,30.10,NE,44,5.0,8.0,95,0.00,,,0.00,0,Wunderground v.1.15,2013-04-18 03:35:00,
2013-04-17 22:36:00,33.6,32.3,30.10,NNE,33,4.0,8.0,95,0.00,,,0.00,0,Wunderground v.1.15,2013-04-18 03:36:00,
2013-04-17 22:37:00,33.6,32.3,30.09,NNE,17,5.0,8.0,95,0.00,,,0.00,0,Wunderground v.1.15,2013-04-18 03:37:00,
2013-04-17 22:38:00,33.7,32.4,30.09,NNE,14,9.0,9.0,95,0.00,,,0.00,0,Wunderground v.1.15,2013-04-18 03:38:00,
2013-04-17 22:39:00,33.7,32.4,30.09,NNE,15,4.0,9.0,95,0.00,,,0.00,0,Wunderground v.1.15,2013-04-18 03:39:00,
2013-04-17 22:40:00,33.7,32.4,30.09,North,8,4.0,9.0,95,0.00,,,0.00,0,Wunderground v.1.15,2013-04-18 03:40:00,
2013-04-17 22:41:00,33.7,32.4,30.09,ENE,62,8.0,10.0,95,0.00,,,0.00,0,Wunderground v.1.15,2013-04-18 03:41:00,
2013-04-17 22:42:00,33.7,32.4,30.09,NNE,33,10.0,10.0,95,0.00,,,0.00,0,Wunderground v.1.15,2013-04-18 03:42:00,
2013-04-17 22:43:00,33.7,32.4,30.10,NNE,24,5.0,10.0,95,0.00,,,0.00,0,Wunderground v.1.15,2013-04-18 03:43:00,
2013-04-17 22:44:00,33.7,32.4,30.09,NE,37,2.0,10.0,95,0.00,,,0.00,0,Wunderground v.1.15,2013-04-18 03:44:00,
2013-04-17 22:45:00,33.7,32.4,30.10,NE,38,6.0,10.0,95,0.00,,,0.00,0,Wunderground v.1.15,2013-04-18 03:45:00,
2013-04-17 22:46:00,33.7,32.4,30.10,NE,40,2.0,10.0,95,0.00,,,0.00,0,Wunderground v.1.15,2013-04-18 03:46:00,
2013-04-17 22:47:00,33.8,32.5,30.11,NE,34,7.0,10.0,95,0.00,,,0.00,0,Wunderground v.1.15,2013-04-18 03:47:00,
2013-04-17 22:49:00,33.8,32.5,30.11,NNE,25,3.0,10.0,95,0.00,,,0.00,0,Wunderground v.1.15,2013-04-18 03:49:00,
2013-04-17 22:50:00,33.8,32.5,30.11,NE,37,3.0,10.0,95,0.00,,,0.00,0,Wunderground v.1.15,2013-04-18 03:50:00,
2013-04-17 22:51:00,33.8,32.5,30.11,NNE,29,3.0,8.0,95,0.00,,,0.00,0,Wunderground v.1.15,2013-04-18 03:51:00,
2013-04-17 22:53:00,33.8,32.5,30.11,NNE,33,3.0,8.0,95,0.00,,,0.00,0,Wunderground v.1.15,2013-04-18 03:53:00,
2013-04-17 22:54:00,33.8,32.5,30.11,NE,49,5.0,8.0,95,0.00,,,0.00,0,Wunderground v.1.15,2013-04-18 03:54:00,
2013-04-17 22:55:00,33.9,32.9,30.12,NE,51,6.0,8.0,96,0.00,,,0.00,0,Wunderground v.1.15,2013-04-18 03:55:00,
2013-04-17 22:57:00,33.9,32.9,30.12,NE,55,5.0,9.0,96,0.00,,,0.00,0,Wunderground v.1.15,2013-04-18 03:57:00,
2013-04-17 22:58:00,33.9,32.9,30.12,NE,55,2.0,9.0,96,0.00,,,0.00,0,Wunderground v.1.15,2013-04-18 03:58:00,
2013-04-17 22:59:00,33.9,32.9,30.12,NE,55,2.0,9.0,96,0.00,,,0.00,0,Wunderground v.1.15,2013-04-18 03:59:00,
2013-04-17 23:00:00,33.9,32.9,30.12,NE,56,2.0,9.0,96,0.00,,,0.00,0,Wunderground v.1.15,2013-04-18 04:00:00,
2013-04-17 23:01:00,33.9,32.9,30.13,NE,56,2.0,3.0,96,0.00,,,0.00,0,Wunderground v.1.15,2013-04-18 04:01:00,
2013-04-17 23:06:00,33.9,32.9,30.12,ENE,60,3.0,9.0,96,0.00,,,0.00,0,Wunderground v.1.15,2013-04-18 04:06:00,
2013-04-17 23:07:00,33.9,32.9,30.12,ENE,60,5.0,9.0,96,0.00,,,0.00,0,Wunderground v.1.15,2013-04-18 04:07:00,
2013-04-17 23:11:00,33.9,32.9,30.10,North,0,6.0,8.0,96,0.00,,,0.00,0,Wunderground v.1.15,2013-04-18 04:11:00,
2013-04-17 23:12:00,33.9,32.9,30.10,North,0,1.0,8.0,96,0.00,,,0.00,0,Wunderground v.1.15,2013-04-18 04:12:00,
2013-04-17 23:13:00,33.8,32.8,30.10,North,0,3.0,8.0,96,0.00,,,0.00,0,Wunderground v.1.15,2013-04-18 04:13:00,
2013-04-17 23:16:00,33.7,32.7,30.11,North,0,0.0,8.0,96,0.00,,,0.00,0,Wunderground v.1.15,2013-04-18 04:16:00,
2013-04-17 23:17:00,33.7,32.7,30.11,North,0,1.0,8.0,96,0.00,,,0.00,0,Wunderground v.1.15,2013-04-18 04:17:00,
2013-04-17 23:18:00,33.6,32.6,30.11,North,0,7.0,8.0,96,0.00,,,0.00,0,Wunderground v.1.15,2013-04-18 04:18:00,
2013-04-17 23:21:00,33.4,32.4,30.11,North,0,4.0,5.0,96,0.00,,,0.00,0,Wunderground v.1.15,2013-04-18 04:21:00,
2013-04-17 23:22:00,33.4,32.4,30.11,North,0,6.0,6.0,96,0.00,,,0.00,0,Wunderground v.1.15,2013-04-18 04:22:00,
2013-04-17 23:23:00,33.3,32.3,30.11,North,0,2.0,6.0,96,0.00,,,0.00,0,Wunderground v.1.15,2013-04-18 04:23:00,
2013-04-17 23:27:00,33.2,32.2,30.11,North,0,5.0,6.0,96,0.00,,,0.00,0,Wunderground v.1.15,2013-04-18 04:27:00,
2013-04-17 23:29:00,33.1,32.1,30.10,North,0,4.0,6.0,96,0.00,,,0.00,0,Wunderground v.1.15,2013-04-18 04:29:00,
2013-04-17 23:32:00,32.9,31.9,30.10,North,1,1.0,7.0,96,0.00,,,0.00,0,Wunderground v.1.15,2013-04-18 04:32:00,
2013-04-17 23:34:00,32.9,31.9,30.10,NNE,12,3.0,7.0,96,0.00,,,0.00,0,Wunderground v.1.15,2013-04-18 04:34:00,
2013-04-17 23:37:00,32.8,31.8,30.09,North,0,1.0,10.0,96,0.00,,,0.00,0,Wunderground v.1.15,2013-04-18 04:37:00,
2013-04-17 23:39:00,32.8,31.8,30.10,North,0,9.0,10.0,96,0.00,,,0.00,0,Wunderground v.1.15,2013-04-18 04:39:00,
2013-04-17 23:42:00,32.7,31.7,30.10,North,0,6.0,7.0,96,0.00,,,0.00,0,Wunderground v.1.15,2013-04-18 04:42:00,
2013-04-17 23:43:00,32.7,31.7,30.10,North,0,4.0,7.0,96,0.00,,,0.00,0,Wunderground v.1.15,2013-04-18 04:43:00,
2013-04-17 23:44:00,32.7,31.7,30.10,North,0,3.0,7.0,96,0.00,,,0.00,0,Wunderground v.1.15,2013-04-18 04:44:00,
2013-04-17 23:47:00,32.6,31.6,30.10,North,0,5.0,9.0,96,0.00,,,0.00,0,Wunderground v.1.15,2013-04-18 04:47:00,
2013-04-17 23:48:00,32.6,31.6,30.10,North,0,2.0,9.0,96,0.00,,,0.00,0,Wunderground v.1.15,2013-04-18 04:48:00,
2013-04-17 23:50:00,32.6,31.6,30.10,North,0,3.0,9.0,96,0.00,,,0.00,0,Wunderground v.1.15,2013-04-18 04:50:00,
2013-04-17 23:52:00,32.6,31.6,30.10,North,0,4.0,7.0,96,0.00,,,0.00,0,Wunderground v.1.15,2013-04-18 04:52:00,
2013-04-17 23:53:00,32.5,31.5,30.10,North,0,3.0,7.0,96,0.00,,,0.00,0,Wunderground v.1.15,2013-04-18 04:53:00,
2013-04-17 23:54:00,32.5,31.7,30.11,North,0,2.0,7.0,97,0.00,,,0.00,0,Wunderground v.1.15,2013-04-18 04:54:00,
2013-04-17 23:55:00,32.6,31.8,30.11,North,0,4.0,7.0,97,0.00,,,0.00,0,Wunderground v.1.15,2013-04-18 04:55:00,
2013-04-17 23:57:00,32.6,31.8,30.11,North,0,3.0,7.0,97,0.00,,,0.00,0,Wunderground v.1.15,2013-04-18 04:57:00,
2013-04-17 23:58:00,32.6,31.8,30.11,North,0,2.0,7.0,97,0.00,,,0.00,0,Wunderground v.1.15,2013-04-18 04:58:00,
2013-04-17 23:59:00,32.5,31.7,30.10,North,0,0.0,7.0,97,0.00,,,0.00,0,Wunderground v.1.15,2013-04-18 04:59:00,